Wetterdaten: Donnerstag, 09.07.2015
Datum Zeit Temp. Aussen +5cm Feuchte Auss BlattFeu 1 Luftdruck Regen Sonnenschein Regendauer Solar Windben
09.07.2015 00:00 15,3 C 13,3 C 92 % 12 lf 1012,7 hPa 0,0 l/m 0 min 0 min 0 W/m 14,6 km/h (3 Bft)
09.07.2015 00:02 15,3 C 13,3 C 92 % 12 lf 1012,6 hPa 0,0 l/m 0 min 0 min 0 W/m 14,6 km/h (3 Bft)
09.07.2015 00:05 15,4 C 13,3 C 92 % 12 lf 1012,7 hPa 0,0 l/m 0 min 0 min 0 W/m 18,8 km/h (3 Bft)
09.07.2015 00:06 15,4 C 13,3 C 92 % 12 lf 1012,8 hPa 0,0 l/m 0 min 1 min 0 W/m 18,8 km/h (3 Bft)
09.07.2015 00:08 15,4 C 13,3 C 91 % 13 lf 1012,8 hPa 0,0 l/m 0 min 2 min 0 W/m 16,7 km/h (3 Bft)
09.07.2015 00:10 15,4 C 13,3 C 91 % 14 lf 1012,8 hPa 0,0 l/m 0 min 2 min 0 W/m 14,6 km/h (3 Bft)
09.07.2015 00:12 15,4 C 13,3 C 91 % 14 lf 1012,8 hPa 0,0 l/m 0 min 2 min 0 W/m 14,6 km/h (3 Bft)
09.07.2015 00:14 15,4 C 13,3 C 91 % 15 lf 1012,8 hPa 0,0 l/m 0 min 2 min 0 W/m 18,8 km/h (3 Bft)
09.07.2015 00:16 15,4 C 13,3 C 91 % 15 lf 1012,8 hPa 0,2 l/m 0 min 2 min 0 W/m 16,7 km/h (3 Bft)
09.07.2015 00:18 15,4 C 13,3 C 91 % 15 lf 1012,8 hPa 0,0 l/m 0 min 2 min 0 W/m 12,6 km/h (3 Bft)
09.07.2015 00:20 15,5 C 13,3 C 91 % 15 lf 1012,8 hPa 0,0 l/m 0 min 2 min 0 W/m 10,5 km/h (2 Bft)
09.07.2015 00:22 15,5 C 13,3 C 91 % 15 lf 1012,8 hPa 0,0 l/m 0 min 2 min 0 W/m 14,6 km/h (3 Bft)
09.07.2015 00:24 15,5 C 13,3 C 91 % 15 lf 1012,7 hPa 0,0 l/m 0 min 2 min 0 W/m 14,6 km/h (3 Bft)
09.07.2015 00:26 15,5 C 13,3 C 91 % 15 lf 1012,7 hPa 0,0 l/m 0 min 0 min 0 W/m 10,5 km/h (2 Bft)
09.07.2015 00:28 15,5 C 13,3 C 92 % 15 lf 1012,7 hPa 0,0 l/m 0 min 0 min 0 W/m 10,5 km/h (2 Bft)
09.07.2015 00:30 15,5 C 13,3 C 92 % 15 lf 1012,7 hPa 0,0 l/m 0 min 0 min 0 W/m 10,5 km/h (2 Bft)
09.07.2015 00:32 15,5 C 13,3 C 92 % 15 lf 1012,6 hPa 0,0 l/m 0 min 0 min 0 W/m 12,6 km/h (3 Bft)
09.07.2015 00:34 15,5 C 13,3 C 92 % 15 lf 1012,7 hPa 0,0 l/m 0 min 0 min 0 W/m 10,5 km/h (2 Bft)
09.07.2015 00:36 15,5 C 13,3 C 92 % 15 lf 1012,7 hPa 0,0 l/m 0 min 0 min 0 W/m 18,8 km/h (3 Bft)
09.07.2015 00:38 15,4 C 13,3 C 92 % 15 lf 1012,8 hPa 0,0 l/m 0 min 0 min 0 W/m 12,6 km/h (3 Bft)
09.07.2015 00:40 15,4 C 13,3 C 92 % 15 lf 1012,8 hPa 0,0 l/m 0 min 0 min 0 W/m 10,5 km/h (2 Bft)
09.07.2015 00:42 15,4 C 13,9 C 92 % 15 lf 1012,8 hPa 0,0 l/m 0 min 0 min 0 W/m 14,6 km/h (3 Bft)
09.07.2015 00:44 15,4 C 13,9 C 92 % 15 lf 1012,7 hPa 0,0 l/m 0 min 0 min 0 W/m 16,7 km/h (3 Bft)
09.07.2015 00:46 15,4 C 13,3 C 92 % 15 lf 1012,7 hPa 0,0 l/m 0 min 0 min 0 W/m 18,8 km/h (3 Bft)
09.07.2015 00:48 15,4 C 13,3 C 92 % 15 lf 1012,7 hPa 0,0 l/m 0 min 0 min 0 W/m 16,7 km/h (3 Bft)
09.07.2015 00:50 15,4 C 13,3 C 92 % 15 lf 1012,7 hPa 0,0 l/m 0 min 0 min 0 W/m 12,6 km/h (3 Bft)
09.07.2015 00:52 15,4 C 13,3 C 92 % 15 lf 1012,8 hPa 0,0 l/m 0 min 0 min 0 W/m 18,8 km/h (3 Bft)
09.07.2015 00:54 15,4 C 13,3 C 93 % 15 lf 1012,7 hPa 0,0 l/m 0 min 0 min 0 W/m 16,7 km/h (3 Bft)
09.07.2015 00:56 15,4 C 13,3 C 93 % 15 lf 1012,7 hPa 0,0 l/m 0 min 0 min 0 W/m 18,8 km/h (3 Bft)
09.07.2015 00:58 15,4 C 13,3 C 93 % 15 lf 1012,7 hPa 0,0 l/m 0 min 0 min 0 W/m 16,7 km/h (3 Bft)
09.07.2015 01:00 15,4 C 13,3 C 93 % 15 lf 1012,7 hPa 0,0 l/m 0 min 0 min 0 W/m 14,6 km/h (3 Bft)
09.07.2015 01:02 15,4 C 13,3 C 93 % 15 lf 1012,7 hPa 0,0 l/m 0 min 0 min 0 W/m 14,6 km/h (3 Bft)
09.07.2015 01:04 15,4 C 13,3 C 93 % 15 lf 1012,7 hPa 0,0 l/m 0 min 0 min 0 W/m 14,6 km/h (3 Bft)
09.07.2015 01:06 15,4 C 13,3 C 93 % 15 lf 1012,7 hPa 0,0 l/m 0 min 0 min 0 W/m 20,9 km/h (4 Bft)
09.07.2015 01:08 15,3 C 13,3 C 93 % 15 lf 1012,7 hPa 0,0 l/m 0 min 0 min 0 W/m 31,4 km/h (5 Bft)
09.07.2015 01:10 15,3 C 13,3 C 93 % 15 lf 1012,7 hPa 0,0 l/m 0 min 0 min 0 W/m 20,9 km/h (4 Bft)
09.07.2015 01:12 15,3 C 13,3 C 93 % 15 lf 1012,7 hPa 0,0 l/m 0 min 0 min 0 W/m 20,9 km/h (4 Bft)
09.07.2015 01:14 15,3 C 13,3 C 93 % 15 lf 1012,7 hPa 0,0 l/m 0 min 0 min 0 W/m 23,0 km/h (4 Bft)
09.07.2015 01:16 15,3 C 13,3 C 93 % 15 lf 1012,7 hPa 0,0 l/m 0 min 0 min 0 W/m 16,7 km/h (3 Bft)
09.07.2015 01:18 15,3 C 13,3 C 93 % 15 lf 1012,7 hPa 0,0 l/m 0 min 0 min 0 W/m 18,8 km/h (3 Bft)
09.07.2015 01:20 15,3 C 13,3 C 93 % 15 lf 1012,7 hPa 0,0 l/m 0 min 0 min 0 W/m 27,2 km/h (4 Bft)
09.07.2015 01:22 15,3 C 13,3 C 93 % 15 lf 1012,7 hPa 0,0 l/m 0 min 0 min 0 W/m 23,0 km/h (4 Bft)
09.07.2015 01:24 15,3 C 13,3 C 93 % 15 lf 1012,7 hPa 0,0 l/m 0 min 0 min 0 W/m 14,6 km/h (3 Bft)
09.07.2015 01:26 15,3 C 13,3 C 93 % 15 lf 1012,7 hPa 0,0 l/m 0 min 0 min 0 W/m 16,7 km/h (3 Bft)
09.07.2015 01:28 15,3 C 13,3 C 93 % 15 lf 1012,7 hPa 0,0 l/m 0 min 0 min 0 W/m 16,7 km/h (3 Bft)
09.07.2015 01:30 15,3 C 13,3 C 93 % 15 lf 1012,7 hPa 0,0 l/m 0 min 0 min 0 W/m 18,8 km/h (3 Bft)
09.07.2015 01:32 15,3 C 13,3 C 93 % 15 lf 1012,7 hPa 0,0 l/m 0 min 0 min 0 W/m 20,9 km/h (4 Bft)
09.07.2015 01:34 15,3 C 13,3 C 93 % 15 lf 1012,7 hPa 0,0 l/m 0 min 0 min 0 W/m 20,9 km/h (4 Bft)
09.07.2015 01:36 15,3 C 13,3 C 93 % 15 lf 1012,7 hPa 0,0 l/m 0 min 0 min 0 W/m 14,6 km/h (3 Bft)
09.07.2015 01:38 15,3 C 13,3 C 93 % 15 lf 1012,7 hPa 0,0 l/m 0 min 0 min 0 W/m 20,9 km/h (4 Bft)
09.07.2015 01:40 15,3 C 13,3 C 93 % 15 lf 1012,7 hPa 0,0 l/m 0 min 0 min 0 W/m 20,9 km/h (4 Bft)
09.07.2015 01:42 15,3 C 13,3 C 93 % 14 lf 1012,7 hPa 0,0 l/m 0 min 0 min 0 W/m 18,8 km/h (3 Bft)
09.07.2015 01:44 15,3 C 13,3 C 92 % 14 lf 1012,8 hPa 0,0 l/m 0 min 0 min 0 W/m 16,7 km/h (3 Bft)
09.07.2015 01:46 15,3 C 13,3 C 92 % 12 lf 1012,7 hPa 0,0 l/m 0 min 0 min 0 W/m 27,2 km/h (4 Bft)
09.07.2015 01:48 15,3 C 13,3 C 93 % 10 lf 1012,7 hPa 0,0 l/m 0 min 0 min 0 W/m 31,4 km/h (5 Bft)
09.07.2015 01:50 15,3 C 13,3 C 93 % 9 lf 1012,7 hPa 0,0 l/m 0 min 0 min 0 W/m 18,8 km/h (3 Bft)
09.07.2015 01:52 15,3 C 13,3 C 92 % 7 lf 1012,7 hPa 0,0 l/m 0 min 0 min 0 W/m 25,1 km/h (4 Bft)
09.07.2015 01:54 15,3 C 13,3 C 92 % 4 lf 1012,7 hPa 0,0 l/m 0 min 0 min 0 W/m 25,1 km/h (4 Bft)
09.07.2015 01:56 15,3 C 13,3 C 92 % 3 lf 1012,7 hPa 0,0 l/m 0 min 0 min 0 W/m 23,0 km/h (4 Bft)
09.07.2015 01:58 15,3 C 13,3 C 92 % 2 lf 1012,7 hPa 0,0 l/m 0 min 0 min 0 W/m 18,8 km/h (3 Bft)
09.07.2015 02:00 15,4 C 13,3 C 92 % 3 lf 1012,7 hPa 0,0 l/m 0 min 0 min 0 W/m 25,1 km/h (4 Bft)
09.07.2015 02:02 15,4 C 13,3 C 92 % 15 lf 1012,7 hPa 0,0 l/m 0 min 2 min 0 W/m 18,8 km/h (3 Bft)
09.07.2015 02:04 15,4 C 13,3 C 92 % 15 lf 1012,7 hPa 0,2 l/m 0 min 2 min 0 W/m 23,0 km/h (4 Bft)
09.07.2015 02:06 15,4 C 13,3 C 92 % 15 lf 1012,7 hPa 0,2 l/m 0 min 2 min 0 W/m 18,8 km/h (3 Bft)
09.07.2015 02:08 15,4 C 13,3 C 92 % 15 lf 1012,7 hPa 0,2 l/m 0 min 2 min 0 W/m 23,0 km/h (4 Bft)
09.07.2015 02:10 15,4 C 13,3 C 92 % 15 lf 1012,8 hPa 0,0 l/m 0 min 2 min 0 W/m 16,7 km/h (3 Bft)
09.07.2015 02:12 15,4 C 13,3 C 92 % 15 lf 1012,9 hPa 0,0 l/m 0 min 2 min 0 W/m 37,7 km/h (5 Bft)
09.07.2015 02:14 15,4 C 13,3 C 92 % 15 lf 1013,0 hPa 0,2 l/m 0 min 2 min 0 W/m 27,2 km/h (4 Bft)
09.07.2015 02:16 15,4 C 13,3 C 92 % 15 lf 1013,3 hPa 0,0 l/m 0 min 2 min 0 W/m 31,4 km/h (5 Bft)
09.07.2015 02:18 15,4 C 13,3 C 92 % 15 lf 1013,3 hPa 0,0 l/m 0 min 2 min 0 W/m 33,5 km/h (5 Bft)
09.07.2015 02:20 15,3 C 12,8 C 92 % 15 lf 1013,3 hPa 0,0 l/m 0 min 0 min 0 W/m 43,9 km/h (6 Bft)
09.07.2015 02:22 15,2 C 12,8 C 92 % 15 lf 1013,5 hPa 0,0 l/m 0 min 0 min 0 W/m 23,0 km/h (4 Bft)
09.07.2015 02:24 15,1 C 12,8 C 92 % 15 lf 1013,6 hPa 0,0 l/m 0 min 0 min 0 W/m 25,1 km/h (4 Bft)
09.07.2015 02:26 15,1 C 12,8 C 92 % 15 lf 1013,7 hPa 0,0 l/m 0 min 0 min 0 W/m 29,3 km/h (5 Bft)
09.07.2015 02:28 14,9 C 12,8 C 92 % 15 lf 1013,7 hPa 0,0 l/m 0 min 0 min 0 W/m 20,9 km/h (4 Bft)
09.07.2015 02:30 14,9 C 12,8 C 92 % 15 lf 1013,9 hPa 0,0 l/m 0 min 0 min 0 W/m 20,9 km/h (4 Bft)
09.07.2015 02:32 14,8 C 12,2 C 92 % 15 lf 1013,9 hPa 0,0 l/m 0 min 0 min 0 W/m 23,0 km/h (4 Bft)
09.07.2015 02:34 14,7 C 12,2 C 92 % 15 lf 1013,9 hPa 0,0 l/m 0 min 0 min 0 W/m 20,9 km/h (4 Bft)
09.07.2015 02:36 14,6 C 12,2 C 92 % 15 lf 1013,9 hPa 0,0 l/m 0 min 0 min 0 W/m 20,9 km/h (4 Bft)
09.07.2015 02:38 14,6 C 12,2 C 92 % 15 lf 1014,0 hPa 0,0 l/m 0 min 0 min 0 W/m 25,1 km/h (4 Bft)
09.07.2015 02:40 14,5 C 12,2 C 92 % 15 lf 1014,0 hPa 0,0 l/m 0 min 0 min 0 W/m 23,0 km/h (4 Bft)
09.07.2015 02:42 14,4 C 12,2 C 92 % 15 lf 1014,0 hPa 0,0 l/m 0 min 0 min 0 W/m 25,1 km/h (4 Bft)
09.07.2015 02:44 14,3 C 12,2 C 92 % 15 lf 1014,0 hPa 0,0 l/m 0 min 0 min 0 W/m 23,0 km/h (4 Bft)
09.07.2015 02:46 14,2 C 12,2 C 92 % 15 lf 1014,1 hPa 0,0 l/m 0 min 0 min 0 W/m 27,2 km/h (4 Bft)
09.07.2015 02:48 14,2 C 12,2 C 92 % 15 lf 1014,0 hPa 0,0 l/m 0 min 0 min 0 W/m 25,1 km/h (4 Bft)
09.07.2015 02:50 14,2 C 12,2 C 92 % 15 lf 1014,1 hPa 0,0 l/m 0 min 0 min 0 W/m 23,0 km/h (4 Bft)
09.07.2015 02:52 14,1 C 12,2 C 92 % 15 lf 1014,1 hPa 0,0 l/m 0 min 0 min 0 W/m 18,8 km/h (3 Bft)
09.07.2015 02:54 14,0 C 11,7 C 92 % 15 lf 1014,2 hPa 0,0 l/m 0 min 0 min 0 W/m 18,8 km/h (3 Bft)
09.07.2015 02:56 13,9 C 11,7 C 92 % 15 lf 1014,1 hPa 0,0 l/m 0 min 0 min 0 W/m 20,9 km/h (4 Bft)
09.07.2015 02:58 13,8 C 11,7 C 92 % 15 lf 1014,3 hPa 0,0 l/m 0 min 0 min 0 W/m 29,3 km/h (5 Bft)
09.07.2015 03:00 13,7 C 11,7 C 92 % 15 lf 1014,4 hPa 0,0 l/m 0 min 0 min 0 W/m 14,6 km/h (3 Bft)
09.07.2015 03:02 13,7 C 11,7 C 92 % 15 lf 1014,4 hPa 0,0 l/m 0 min 0 min 0 W/m 23,0 km/h (4 Bft)
09.07.2015 03:04 13,7 C 11,7 C 92 % 15 lf 1014,5 hPa 0,0 l/m 0 min 0 min 0 W/m 20,9 km/h (4 Bft)
09.07.2015 03:06 13,6 C 11,7 C 92 % 15 lf 1014,6 hPa 0,0 l/m 0 min 0 min 0 W/m 23,0 km/h (4 Bft)
09.07.2015 03:08 13,6 C 11,7 C 92 % 15 lf 1014,7 hPa 0,0 l/m 0 min 0 min 0 W/m 23,0 km/h (4 Bft)
09.07.2015 03:10 13,6 C 11,7 C 93 % 15 lf 1014,7 hPa 0,0 l/m 0 min 0 min 0 W/m 31,4 km/h (5 Bft)
09.07.2015 03:12 13,5 C 11,7 C 93 % 15 lf 1014,7 hPa 0,0 l/m 0 min 0 min 0 W/m 25,1 km/h (4 Bft)
09.07.2015 03:14 13,4 C 11,7 C 93 % 15 lf 1014,7 hPa 0,0 l/m 0 min 0 min 0 W/m 20,9 km/h (4 Bft)
09.07.2015 03:16 13,4 C 11,7 C 93 % 15 lf 1014,8 hPa 0,0 l/m 0 min 0 min 0 W/m 23,0 km/h (4 Bft)
09.07.2015 03:18 13,4 C 11,7 C 93 % 15 lf 1014,8 hPa 0,0 l/m 0 min 0 min 0 W/m 16,7 km/h (3 Bft)
09.07.2015 03:20 13,3 C 11,7 C 93 % 15 lf 1014,9 hPa 0,0 l/m 0 min 0 min 0 W/m 14,6 km/h (3 Bft)
09.07.2015 03:22 13,3 C 11,7 C 93 % 15 lf 1014,9 hPa 0,0 l/m 0 min 0 min 0 W/m 16,7 km/h (3 Bft)
09.07.2015 03:24 13,3 C 11,7 C 93 % 15 lf 1014,9 hPa 0,0 l/m 0 min 0 min 0 W/m 14,6 km/h (3 Bft)
09.07.2015 03:26 13,3 C 11,7 C 93 % 15 lf 1014,9 hPa 0,0 l/m 0 min 0 min 0 W/m 18,8 km/h (3 Bft)
09.07.2015 03:28 13,3 C 11,7 C 93 % 15 lf 1015,0 hPa 0,0 l/m 0 min 0 min 0 W/m 12,6 km/h (3 Bft)
09.07.2015 03:30 13,3 C 11,7 C 93 % 15 lf 1015,1 hPa 0,0 l/m 0 min 0 min 0 W/m 25,1 km/h (4 Bft)
09.07.2015 03:32 13,2 C 11,7 C 93 % 15 lf 1015,1 hPa 0,0 l/m 0 min 0 min 0 W/m 16,7 km/h (3 Bft)
09.07.2015 03:34 13,2 C 11,7 C 93 % 15 lf 1015,1 hPa 0,0 l/m 0 min 0 min 0 W/m 23,0 km/h (4 Bft)
09.07.2015 03:36 13,2 C 11,7 C 93 % 15 lf 1015,1 hPa 0,0 l/m 0 min 0 min 0 W/m 20,9 km/h (4 Bft)
09.07.2015 03:38 13,2 C 11,7 C 94 % 15 lf 1015,0 hPa 0,0 l/m 0 min 0 min 0 W/m 25,1 km/h (4 Bft)
09.07.2015 03:40 13,2 C 11,7 C 94 % 15 lf 1015,0 hPa 0,0 l/m 0 min 0 min 0 W/m 14,6 km/h (3 Bft)
09.07.2015 03:42 13,2 C 11,7 C 94 % 15 lf 1015,1 hPa 0,0 l/m 0 min 0 min 0 W/m 20,9 km/h (4 Bft)
09.07.2015 03:44 13,2 C 11,7 C 94 % 15 lf 1015,1 hPa 0,0 l/m 0 min 0 min 0 W/m 12,6 km/h (3 Bft)
09.07.2015 03:46 13,1 C 11,7 C 94 % 15 lf 1015,0 hPa 0,0 l/m 0 min 0 min 0 W/m 18,8 km/h (3 Bft)
09.07.2015 03:48 13,1 C 11,7 C 94 % 15 lf 1015,1 hPa 0,0 l/m 0 min 0 min 0 W/m 18,8 km/h (3 Bft)
09.07.2015 03:50 13,1 C 11,7 C 94 % 15 lf 1015,1 hPa 0,0 l/m 0 min 0 min 0 W/m 16,7 km/h (3 Bft)
09.07.2015 03:52 13,1 C 11,7 C 94 % 15 lf 1015,2 hPa 0,0 l/m 0 min 0 min 0 W/m 20,9 km/h (4 Bft)
09.07.2015 03:54 13,1 C 11,7 C 94 % 15 lf 1015,2 hPa 0,0 l/m 0 min 0 min 0 W/m 14,6 km/h (3 Bft)
09.07.2015 03:56 13,1 C 11,7 C 94 % 15 lf 1015,2 hPa 0,0 l/m 0 min 0 min 0 W/m 20,9 km/h (4 Bft)
09.07.2015 03:58 13,1 C 11,7 C 94 % 15 lf 1015,2 hPa 0,0 l/m 0 min 0 min 0 W/m 27,2 km/h (4 Bft)
09.07.2015 04:00 13,1 C 11,7 C 94 % 15 lf 1015,3 hPa 0,0 l/m 0 min 0 min 0 W/m 23,0 km/h (4 Bft)
09.07.2015 04:05 13,0 C 11,7 C 94 % 15 lf 1015,4 hPa 0,0 l/m 0 min 0 min 0 W/m 18,8 km/h (3 Bft)
09.07.2015 04:06 13,0 C 11,7 C 94 % 15 lf 1015,4 hPa 0,0 l/m 0 min 0 min 0 W/m 10,5 km/h (2 Bft)
09.07.2015 04:08 13,0 C 11,7 C 94 % 15 lf 1015,5 hPa 0,0 l/m 0 min 0 min 0 W/m 23,0 km/h (4 Bft)
09.07.2015 04:10 13,0 C 11,7 C 94 % 15 lf 1015,5 hPa 0,0 l/m 0 min 0 min 0 W/m 20,9 km/h (4 Bft)
09.07.2015 04:12 12,9 C 11,7 C 94 % 15 lf 1015,5 hPa 0,0 l/m 0 min 0 min 0 W/m 23,0 km/h (4 Bft)
09.07.2015 04:14 12,9 C 11,7 C 94 % 15 lf 1015,6 hPa 0,0 l/m 0 min 0 min 0 W/m 16,7 km/h (3 Bft)
09.07.2015 04:16 12,9 C 11,7 C 94 % 15 lf 1015,6 hPa 0,0 l/m 0 min 0 min 0 W/m 20,9 km/h (4 Bft)
09.07.2015 04:18 12,9 C 11,7 C 94 % 15 lf 1015,6 hPa 0,0 l/m 0 min 0 min 0 W/m 14,6 km/h (3 Bft)
09.07.2015 04:20 12,9 C 11,7 C 94 % 15 lf 1015,7 hPa 0,0 l/m 0 min 0 min 0 W/m 25,1 km/h (4 Bft)
09.07.2015 04:22 12,9 C 11,7 C 94 % 15 lf 1015,7 hPa 0,0 l/m 0 min 0 min 0 W/m 29,3 km/h (5 Bft)
09.07.2015 04:24 12,9 C 11,1 C 94 % 15 lf 1015,7 hPa 0,0 l/m 0 min 0 min 0 W/m 14,6 km/h (3 Bft)
09.07.2015 04:26 12,8 C 11,1 C 94 % 15 lf 1015,7 hPa 0,0 l/m 0 min 0 min 0 W/m 23,0 km/h (4 Bft)
09.07.2015 04:28 12,8 C 11,1 C 94 % 15 lf 1015,7 hPa 0,0 l/m 0 min 0 min 0 W/m 18,8 km/h (3 Bft)
09.07.2015 04:30 12,8 C 11,1 C 94 % 15 lf 1015,7 hPa 0,0 l/m 0 min 0 min 0 W/m 14,6 km/h (3 Bft)
09.07.2015 04:32 12,8 C 11,1 C 94 % 15 lf 1015,8 hPa 0,0 l/m 0 min 0 min 0 W/m 16,7 km/h (3 Bft)
09.07.2015 04:34 12,8 C 11,1 C 94 % 15 lf 1015,8 hPa 0,0 l/m 0 min 0 min 0 W/m 14,6 km/h (3 Bft)
09.07.2015 04:36 12,8 C 11,1 C 94 % 15 lf 1015,7 hPa 0,0 l/m 0 min 0 min 0 W/m 20,9 km/h (4 Bft)
09.07.2015 04:38 12,7 C 11,1 C 94 % 15 lf 1015,8 hPa 0,0 l/m 0 min 0 min 0 W/m 16,7 km/h (3 Bft)
09.07.2015 04:40 12,7 C 11,1 C 94 % 15 lf 1015,7 hPa 0,0 l/m 0 min 0 min 0 W/m 14,6 km/h (3 Bft)
09.07.2015 04:42 12,7 C 11,1 C 94 % 15 lf 1015,8 hPa 0,0 l/m 0 min 0 min 0 W/m 18,8 km/h (3 Bft)
09.07.2015 04:44 12,7 C 11,1 C 94 % 15 lf 1015,9 hPa 0,0 l/m 0 min 0 min 0 W/m 12,6 km/h (3 Bft)
09.07.2015 04:46 12,6 C 11,1 C 94 % 15 lf 1015,9 hPa 0,0 l/m 0 min 0 min 0 W/m 23,0 km/h (4 Bft)
09.07.2015 04:48 12,6 C 10,6 C 94 % 15 lf 1015,9 hPa 0,0 l/m 0 min 0 min 0 W/m 23,0 km/h (4 Bft)
09.07.2015 04:50 12,6 C 10,6 C 94 % 15 lf 1015,9 hPa 0,0 l/m 0 min 0 min 0 W/m 18,8 km/h (3 Bft)
09.07.2015 04:52 12,6 C 10,6 C 94 % 15 lf 1015,9 hPa 0,0 l/m 0 min 0 min 0 W/m 14,6 km/h (3 Bft)
09.07.2015 04:54 12,5 C 10,6 C 94 % 15 lf 1016,0 hPa 0,0 l/m 0 min 0 min 0 W/m 18,8 km/h (3 Bft)
09.07.2015 04:56 12,5 C 10,6 C 94 % 15 lf 1016,0 hPa 0,0 l/m 0 min 0 min 0 W/m 20,9 km/h (4 Bft)
09.07.2015 04:58 12,4 C 10,6 C 94 % 15 lf 1016,0 hPa 0,0 l/m 0 min 0 min 0 W/m 10,5 km/h (2 Bft)
09.07.2015 05:00 12,4 C 10,6 C 94 % 15 lf 1016,0 hPa 0,0 l/m 0 min 0 min 0 W/m 14,6 km/h (3 Bft)
09.07.2015 05:02 12,4 C 10,6 C 94 % 15 lf 1016,1 hPa 0,0 l/m 0 min 0 min 0 W/m 14,6 km/h (3 Bft)
09.07.2015 05:04 12,4 C 10,6 C 94 % 15 lf 1016,1 hPa 0,0 l/m 0 min 0 min 0 W/m 18,8 km/h (3 Bft)
09.07.2015 05:06 12,3 C 10,6 C 94 % 15 lf 1016,1 hPa 0,0 l/m 0 min 0 min 0 W/m 20,9 km/h (4 Bft)
09.07.2015 05:08 12,3 C 10,6 C 94 % 15 lf 1016,0 hPa 0,0 l/m 0 min 0 min 0 W/m 14,6 km/h (3 Bft)
09.07.2015 05:10 12,3 C 10,6 C 94 % 15 lf 1016,1 hPa 0,0 l/m 0 min 0 min 0 W/m 12,6 km/h (3 Bft)
09.07.2015 05:12 12,2 C 10,6 C 94 % 15 lf 1016,3 hPa 0,0 l/m 0 min 0 min 2 W/m 10,5 km/h (2 Bft)
09.07.2015 05:14 12,2 C 10,6 C 94 % 15 lf 1016,2 hPa 0,0 l/m 0 min 0 min 5 W/m 12,6 km/h (3 Bft)
09.07.2015 05:16 12,2 C 10,6 C 94 % 15 lf 1016,4 hPa 0,0 l/m 0 min 0 min 5 W/m 12,6 km/h (3 Bft)
09.07.2015 05:18 12,2 C 10,6 C 94 % 15 lf 1016,4 hPa 0,0 l/m 0 min 0 min 5 W/m 12,6 km/h (3 Bft)
09.07.2015 05:20 12,2 C 10,6 C 94 % 15 lf 1016,4 hPa 0,0 l/m 0 min 0 min 7 W/m 8,4 km/h (2 Bft)
09.07.2015 05:22 12,2 C 10,6 C 94 % 15 lf 1016,4 hPa 0,0 l/m 0 min 0 min 7 W/m 10,5 km/h (2 Bft)
09.07.2015 05:24 12,1 C 10,6 C 94 % 15 lf 1016,4 hPa 0,0 l/m 0 min 0 min 7 W/m 10,5 km/h (2 Bft)
09.07.2015 05:26 12,1 C 10,6 C 94 % 15 lf 1016,4 hPa 0,0 l/m 0 min 0 min 9 W/m 10,5 km/h (2 Bft)
09.07.2015 05:28 12,1 C 10,6 C 94 % 15 lf 1016,5 hPa 0,0 l/m 0 min 0 min 9 W/m 10,5 km/h (2 Bft)
09.07.2015 05:30 12,1 C 10,6 C 94 % 15 lf 1016,5 hPa 0,0 l/m 0 min 0 min 11 W/m 10,5 km/h (2 Bft)
09.07.2015 05:32 12,1 C 10,6 C 94 % 15 lf 1016,4 hPa 0,0 l/m 0 min 0 min 11 W/m 8,4 km/h (2 Bft)
09.07.2015 05:34 12,1 C 10,6 C 94 % 15 lf 1016,5 hPa 0,0 l/m 0 min 0 min 12 W/m 12,6 km/h (3 Bft)
09.07.2015 05:36 12,0 C 10,6 C 94 % 15 lf 1016,5 hPa 0,0 l/m 0 min 0 min 12 W/m 8,4 km/h (2 Bft)
09.07.2015 05:38 12,0 C 10,6 C 94 % 15 lf 1016,4 hPa 0,0 l/m 0 min 0 min 14 W/m 8,4 km/h (2 Bft)
09.07.2015 05:40 12,0 C 10,6 C 94 % 15 lf 1016,5 hPa 0,0 l/m 0 min 0 min 15 W/m 10,5 km/h (2 Bft)
09.07.2015 05:42 11,9 C 10,6 C 94 % 15 lf 1016,6 hPa 0,0 l/m 0 min 0 min 17 W/m 10,5 km/h (2 Bft)
09.07.2015 05:44 11,9 C 10,6 C 94 % 15 lf 1016,7 hPa 0,0 l/m 0 min 0 min 18 W/m 14,6 km/h (3 Bft)
09.07.2015 05:46 11,9 C 10,6 C 94 % 15 lf 1016,6 hPa 0,0 l/m 2 min 0 min 19 W/m 14,6 km/h (3 Bft)
09.07.2015 05:48 11,9 C 10,6 C 94 % 15 lf 1016,6 hPa 0,0 l/m 2 min 0 min 21 W/m 10,5 km/h (2 Bft)
09.07.2015 05:50 11,9 C 10,6 C 94 % 15 lf 1016,6 hPa 0,0 l/m 2 min 0 min 21 W/m 10,5 km/h (2 Bft)
09.07.2015 05:52 11,9 C 10,6 C 94 % 15 lf 1016,7 hPa 0,0 l/m 2 min 0 min 24 W/m 14,6 km/h (3 Bft)
09.07.2015 05:54 11,8 C 10,6 C 94 % 15 lf 1016,7 hPa 0,0 l/m 2 min 0 min 26 W/m 12,6 km/h (3 Bft)
09.07.2015 05:56 11,8 C 10,6 C 94 % 15 lf 1016,7 hPa 0,0 l/m 2 min 0 min 26 W/m 14,6 km/h (3 Bft)
09.07.2015 05:58 11,8 C 10,6 C 94 % 15 lf 1016,7 hPa 0,0 l/m 2 min 0 min 29 W/m 14,6 km/h (3 Bft)
09.07.2015 06:00 11,8 C 10,6 C 94 % 15 lf 1016,8 hPa 0,0 l/m 2 min 0 min 32 W/m 12,6 km/h (3 Bft)
09.07.2015 06:02 11,8 C 10,6 C 94 % 15 lf 1016,7 hPa 0,0 l/m 2 min 0 min 33 W/m 10,5 km/h (2 Bft)
09.07.2015 06:05 11,8 C 10,6 C 94 % 15 lf 1016,8 hPa 0,0 l/m 2 min 0 min 33 W/m 10,5 km/h (2 Bft)
09.07.2015 06:08 11,8 C 10,6 C 94 % 15 lf 1016,8 hPa 0,0 l/m 0 min 0 min 33 W/m 10,5 km/h (2 Bft)
09.07.2015 06:10 11,8 C 10,6 C 94 % 15 lf 1016,9 hPa 0,0 l/m 0 min 0 min 33 W/m 14,6 km/h (3 Bft)
09.07.2015 06:12 11,8 C 10,6 C 94 % 15 lf 1016,8 hPa 0,0 l/m 0 min 0 min 32 W/m 8,4 km/h (2 Bft)
09.07.2015 06:14 11,8 C 10,6 C 95 % 15 lf 1016,9 hPa 0,0 l/m 0 min 0 min 33 W/m 14,6 km/h (3 Bft)
09.07.2015 06:16 11,8 C 10,6 C 95 % 15 lf 1016,9 hPa 0,0 l/m 0 min 0 min 34 W/m 10,5 km/h (2 Bft)
09.07.2015 06:18 11,8 C 10,6 C 95 % 15 lf 1016,9 hPa 0,0 l/m 0 min 0 min 37 W/m 12,6 km/h (3 Bft)
09.07.2015 06:20 11,8 C 10,6 C 95 % 15 lf 1017,0 hPa 0,0 l/m 0 min 0 min 39 W/m 10,5 km/h (2 Bft)
09.07.2015 06:22 11,8 C 10,6 C 95 % 15 lf 1017,1 hPa 0,0 l/m 0 min 0 min 40 W/m 10,5 km/h (2 Bft)
09.07.2015 06:24 11,8 C 11,1 C 95 % 15 lf 1017,0 hPa 0,0 l/m 0 min 0 min 40 W/m 10,5 km/h (2 Bft)
09.07.2015 06:26 11,9 C 11,1 C 95 % 15 lf 1017,1 hPa 0,0 l/m 0 min 0 min 40 W/m 14,6 km/h (3 Bft)
09.07.2015 06:28 11,9 C 11,1 C 95 % 15 lf 1017,1 hPa 0,0 l/m 0 min 0 min 41 W/m 10,5 km/h (2 Bft)
09.07.2015 06:30 11,9 C 11,1 C 95 % 15 lf 1017,1 hPa 0,0 l/m 0 min 0 min 41 W/m 14,6 km/h (3 Bft)
09.07.2015 06:32 11,9 C 10,6 C 95 % 15 lf 1017,1 hPa 0,0 l/m 0 min 0 min 42 W/m 12,6 km/h (3 Bft)
09.07.2015 06:34 11,9 C 11,1 C 95 % 15 lf 1017,2 hPa 0,0 l/m 0 min 0 min 44 W/m 10,5 km/h (2 Bft)
09.07.2015 06:36 11,9 C 11,1 C 95 % 15 lf 1017,2 hPa 0,0 l/m 0 min 0 min 46 W/m 8,4 km/h (2 Bft)
09.07.2015 06:38 11,9 C 11,1 C 95 % 15 lf 1017,3 hPa 0,0 l/m 0 min 0 min 46 W/m 8,4 km/h (2 Bft)
09.07.2015 06:40 11,9 C 11,1 C 95 % 15 lf 1017,2 hPa 0,0 l/m 0 min 0 min 48 W/m 8,4 km/h (2 Bft)
09.07.2015 06:42 11,9 C 11,1 C 95 % 15 lf 1017,2 hPa 0,0 l/m 0 min 0 min 50 W/m 6,3 km/h (2 Bft)
09.07.2015 06:44 11,9 C 11,1 C 95 % 15 lf 1017,3 hPa 0,0 l/m 0 min 0 min 52 W/m 10,5 km/h (2 Bft)
09.07.2015 06:46 12,0 C 11,1 C 95 % 15 lf 1017,2 hPa 0,0 l/m 0 min 0 min 53 W/m 12,6 km/h (3 Bft)
09.07.2015 06:48 12,0 C 11,1 C 95 % 14 lf 1017,3 hPa 0,0 l/m 0 min 0 min 54 W/m 14,6 km/h (3 Bft)
09.07.2015 06:50 12,0 C 11,1 C 95 % 13 lf 1017,3 hPa 0,0 l/m 0 min 0 min 54 W/m 10,5 km/h (2 Bft)
09.07.2015 06:52 12,0 C 11,1 C 95 % 13 lf 1017,3 hPa 0,0 l/m 0 min 0 min 54 W/m 8,4 km/h (2 Bft)
09.07.2015 06:54 12,0 C 11,1 C 95 % 12 lf 1017,3 hPa 0,0 l/m 0 min 0 min 57 W/m 12,6 km/h (3 Bft)
09.07.2015 06:56 12,0 C 11,1 C 95 % 12 lf 1017,3 hPa 0,0 l/m 0 min 0 min 58 W/m 8,4 km/h (2 Bft)
09.07.2015 06:58 12,1 C 11,1 C 95 % 11 lf 1017,3 hPa 0,0 l/m 0 min 0 min 60 W/m 10,5 km/h (2 Bft)
09.07.2015 07:00 12,1 C 11,1 C 95 % 9 lf 1017,4 hPa 0,0 l/m 0 min 0 min 61 W/m 12,6 km/h (3 Bft)
09.07.2015 07:02 12,1 C 11,1 C 95 % 6 lf 1017,3 hPa 0,0 l/m 0 min 0 min 62 W/m 12,6 km/h (3 Bft)
09.07.2015 07:04 12,1 C 11,1 C 95 % 4 lf 1017,4 hPa 0,0 l/m 0 min 0 min 64 W/m 12,6 km/h (3 Bft)
09.07.2015 07:06 12,1 C 11,1 C 95 % 3 lf 1017,4 hPa 0,0 l/m 0 min 0 min 66 W/m 10,5 km/h (2 Bft)
09.07.2015 07:08 12,1 C 11,1 C 95 % 2 lf 1017,4 hPa 0,0 l/m 0 min 0 min 69 W/m 14,6 km/h (3 Bft)
09.07.2015 07:10 12,1 C 11,1 C 95 % 1 lf 1017,4 hPa 0,0 l/m 0 min 0 min 71 W/m 14,6 km/h (3 Bft)
09.07.2015 07:12 12,1 C 11,1 C 95 % 1 lf 1017,4 hPa 0,0 l/m 0 min 0 min 75 W/m 6,3 km/h (2 Bft)
09.07.2015 07:14 12,1 C 11,1 C 95 % 1 lf 1017,3 hPa 0,0 l/m 0 min 0 min 79 W/m 16,7 km/h (3 Bft)
09.07.2015 07:16 12,2 C 11,1 C 95 % 1 lf 1017,4 hPa 0,0 l/m 0 min 0 min 85 W/m 12,6 km/h (3 Bft)
09.07.2015 07:18 12,2 C 11,1 C 95 % 1 lf 1017,4 hPa 0,0 l/m 0 min 0 min 92 W/m 10,5 km/h (2 Bft)
09.07.2015 07:20 12,2 C 11,1 C 95 % 0 lf 1017,4 hPa 0,0 l/m 0 min 0 min 97 W/m 8,4 km/h (2 Bft)
09.07.2015 07:22 12,2 C 11,1 C 95 % 0 lf 1017,3 hPa 0,0 l/m 0 min 0 min 100 W/m 12,6 km/h (3 Bft)
09.07.2015 07:24 12,2 C 11,1 C 95 % 0 lf 1017,3 hPa 0,0 l/m 0 min 0 min 101 W/m 8,4 km/h (2 Bft)
09.07.2015 07:26 12,2 C 11,1 C 95 % 0 lf 1017,4 hPa 0,0 l/m 0 min 0 min 97 W/m 10,5 km/h (2 Bft)
09.07.2015 07:28 12,2 C 11,1 C 95 % 0 lf 1017,4 hPa 0,0 l/m 0 min 0 min 97 W/m 6,3 km/h (2 Bft)
09.07.2015 07:30 12,2 C 11,1 C 95 % 0 lf 1017,4 hPa 0,0 l/m 0 min 0 min 98 W/m 10,5 km/h (2 Bft)
09.07.2015 07:32 12,2 C 11,1 C 95 % 0 lf 1017,4 hPa 0,0 l/m 0 min 0 min 99 W/m 18,8 km/h (3 Bft)
09.07.2015 07:34 12,3 C 11,1 C 95 % 0 lf 1017,4 hPa 0,0 l/m 0 min 0 min 103 W/m 12,6 km/h (3 Bft)
09.07.2015 07:36 12,3 C 11,1 C 94 % 0 lf 1017,5 hPa 0,0 l/m 0 min 0 min 105 W/m 10,5 km/h (2 Bft)
09.07.2015 07:38 12,3 C 11,1 C 94 % 0 lf 1017,5 hPa 0,0 l/m 0 min 0 min 107 W/m 10,5 km/h (2 Bft)
09.07.2015 07:40 12,3 C 11,1 C 94 % 0 lf 1017,5 hPa 0,0 l/m 0 min 0 min 111 W/m 12,6 km/h (3 Bft)
09.07.2015 07:42 12,4 C 11,7 C 94 % 0 lf 1017,4 hPa 0,0 l/m 0 min 0 min 109 W/m 10,5 km/h (2 Bft)
09.07.2015 07:44 12,4 C 11,7 C 94 % 0 lf 1017,5 hPa 0,0 l/m 0 min 0 min 108 W/m 10,5 km/h (2 Bft)
09.07.2015 07:46 12,4 C 11,1 C 94 % 0 lf 1017,5 hPa 0,0 l/m 0 min 0 min 105 W/m 12,6 km/h (3 Bft)
09.07.2015 07:48 12,4 C 11,1 C 94 % 0 lf 1017,5 hPa 0,0 l/m 0 min 0 min 102 W/m 16,7 km/h (3 Bft)
09.07.2015 07:50 12,4 C 11,1 C 94 % 0 lf 1017,6 hPa 0,0 l/m 0 min 0 min 103 W/m 14,6 km/h (3 Bft)
09.07.2015 07:52 12,5 C 11,1 C 94 % 0 lf 1017,5 hPa 0,0 l/m 0 min 0 min 110 W/m 10,5 km/h (2 Bft)
09.07.2015 07:54 12,5 C 11,1 C 93 % 0 lf 1017,6 hPa 0,0 l/m 0 min 0 min 115 W/m 8,4 km/h (2 Bft)
09.07.2015 07:56 12,6 C 11,7 C 93 % 0 lf 1017,7 hPa 0,0 l/m 0 min 0 min 118 W/m 10,5 km/h (2 Bft)
09.07.2015 07:58 12,6 C 11,7 C 93 % 0 lf 1017,7 hPa 0,0 l/m 0 min 0 min 120 W/m 10,5 km/h (2 Bft)
09.07.2015 08:00 12,6 C 11,7 C 93 % 0 lf 1017,8 hPa 0,0 l/m 0 min 0 min 130 W/m 10,5 km/h (2 Bft)
09.07.2015 08:02 12,7 C 11,7 C 93 % 0 lf 1017,8 hPa 0,0 l/m 0 min 0 min 144 W/m 10,5 km/h (2 Bft)
09.07.2015 08:04 12,7 C 11,7 C 93 % 0 lf 1017,8 hPa 0,0 l/m 0 min 0 min 142 W/m 12,6 km/h (3 Bft)
09.07.2015 08:06 12,8 C 11,7 C 93 % 0 lf 1017,8 hPa 0,0 l/m 0 min 0 min 155 W/m 8,4 km/h (2 Bft)
09.07.2015 08:08 12,8 C 12,2 C 92 % 0 lf 1017,9 hPa 0,0 l/m 2 min 0 min 182 W/m 10,5 km/h (2 Bft)
09.07.2015 08:10 12,8 C 12,2 C 92 % 0 lf 1017,8 hPa 0,0 l/m 0 min 0 min 157 W/m 10,5 km/h (2 Bft)
09.07.2015 08:12 12,9 C 12,2 C 92 % 0 lf 1017,8 hPa 0,0 l/m 0 min 0 min 154 W/m 10,5 km/h (2 Bft)
09.07.2015 08:14 12,9 C 12,2 C 92 % 0 lf 1017,9 hPa 0,0 l/m 0 min 0 min 163 W/m 12,6 km/h (3 Bft)
09.07.2015 08:16 12,9 C 12,2 C 92 % 0 lf 1017,9 hPa 0,0 l/m 0 min 0 min 182 W/m 14,6 km/h (3 Bft)
09.07.2015 08:18 13,0 C 12,2 C 92 % 0 lf 1017,9 hPa 0,0 l/m 2 min 0 min 192 W/m 14,6 km/h (3 Bft)
09.07.2015 08:20 13,0 C 12,2 C 91 % 0 lf 1017,9 hPa 0,0 l/m 2 min 0 min 316 W/m 16,7 km/h (3 Bft)
09.07.2015 08:22 13,0 C 12,8 C 91 % 0 lf 1017,9 hPa 0,0 l/m 2 min 0 min 346 W/m 10,5 km/h (2 Bft)
09.07.2015 08:24 13,1 C 12,8 C 91 % 0 lf 1017,9 hPa 0,0 l/m 2 min 0 min 267 W/m 10,5 km/h (2 Bft)
09.07.2015 08:26 13,1 C 12,8 C 91 % 0 lf 1018,0 hPa 0,0 l/m 2 min 0 min 225 W/m 10,5 km/h (2 Bft)
09.07.2015 08:28 13,2 C 12,8 C 90 % 0 lf 1017,9 hPa 0,0 l/m 0 min 0 min 181 W/m 12,6 km/h (3 Bft)
09.07.2015 08:30 13,2 C 12,8 C 90 % 0 lf 1018,0 hPa 0,0 l/m 0 min 0 min 144 W/m 14,6 km/h (3 Bft)
09.07.2015 08:32 13,3 C 12,8 C 90 % 0 lf 1018,0 hPa 0,0 l/m 0 min 0 min 149 W/m 8,4 km/h (2 Bft)
09.07.2015 08:34 13,3 C 12,8 C 90 % 0 lf 1018,0 hPa 0,0 l/m 0 min 0 min 162 W/m 10,5 km/h (2 Bft)
09.07.2015 08:36 13,4 C 13,3 C 89 % 0 lf 1018,1 hPa 0,0 l/m 0 min 0 min 177 W/m 12,6 km/h (3 Bft)
09.07.2015 08:38 13,4 C 13,3 C 89 % 0 lf 1018,2 hPa 0,0 l/m 0 min 0 min 184 W/m 8,4 km/h (2 Bft)
09.07.2015 08:40 13,5 C 13,3 C 89 % 0 lf 1018,2 hPa 0,0 l/m 0 min 0 min 174 W/m 14,6 km/h (3 Bft)
09.07.2015 08:42 13,5 C 13,3 C 89 % 0 lf 1018,2 hPa 0,0 l/m 0 min 0 min 170 W/m 20,9 km/h (4 Bft)
09.07.2015 08:44 13,6 C 13,3 C 88 % 0 lf 1018,2 hPa 0,0 l/m 0 min 0 min 168 W/m 14,6 km/h (3 Bft)
09.07.2015 08:46 13,6 C 13,3 C 88 % 0 lf 1018,2 hPa 0,0 l/m 0 min 0 min 172 W/m 12,6 km/h (3 Bft)
09.07.2015 08:48 13,6 C 13,3 C 88 % 0 lf 1018,3 hPa 0,0 l/m 0 min 0 min 213 W/m 12,6 km/h (3 Bft)
09.07.2015 08:50 13,7 C 13,3 C 87 % 0 lf 1018,3 hPa 0,0 l/m 2 min 0 min 277 W/m 8,4 km/h (2 Bft)
09.07.2015 08:52 13,8 C 13,9 C 87 % 0 lf 1018,4 hPa 0,0 l/m 2 min 0 min 289 W/m 18,8 km/h (3 Bft)
09.07.2015 08:54 13,8 C 13,9 C 87 % 0 lf 1018,4 hPa 0,0 l/m 2 min 0 min 274 W/m 12,6 km/h (3 Bft)
09.07.2015 08:56 13,9 C 13,9 C 87 % 0 lf 1018,4 hPa 0,0 l/m 2 min 0 min 278 W/m 16,7 km/h (3 Bft)
09.07.2015 08:58 14,0 C 13,9 C 87 % 0 lf 1018,4 hPa 0,0 l/m 2 min 0 min 267 W/m 16,7 km/h (3 Bft)
09.07.2015 09:00 14,1 C 13,9 C 86 % 0 lf 1018,5 hPa 0,0 l/m 0 min 0 min 227 W/m 16,7 km/h (3 Bft)
09.07.2015 09:02 14,2 C 13,9 C 86 % 0 lf 1018,4 hPa 0,0 l/m 0 min 0 min 172 W/m 27,2 km/h (4 Bft)
09.07.2015 09:04 14,2 C 13,9 C 85 % 0 lf 1018,4 hPa 0,0 l/m 0 min 0 min 162 W/m 16,7 km/h (3 Bft)
09.07.2015 09:06 14,2 C 13,9 C 85 % 0 lf 1018,5 hPa 0,0 l/m 0 min 0 min 169 W/m 20,9 km/h (4 Bft)
09.07.2015 09:08 14,2 C 13,9 C 85 % 0 lf 1018,5 hPa 0,0 l/m 0 min 0 min 163 W/m 25,1 km/h (4 Bft)
09.07.2015 09:10 14,2 C 13,9 C 85 % 0 lf 1018,5 hPa 0,0 l/m 0 min 0 min 160 W/m 8,4 km/h (2 Bft)
09.07.2015 09:12 14,2 C 13,9 C 85 % 0 lf 1018,5 hPa 0,0 l/m 0 min 0 min 170 W/m 8,4 km/h (2 Bft)
09.07.2015 09:14 14,3 C 13,9 C 85 % 0 lf 1018,5 hPa 0,0 l/m 0 min 0 min 184 W/m 14,6 km/h (3 Bft)
09.07.2015 09:16 14,3 C 13,9 C 85 % 0 lf 1018,5 hPa 0,0 l/m 0 min 0 min 163 W/m 18,8 km/h (3 Bft)
09.07.2015 09:18 14,3 C 13,9 C 85 % 0 lf 1018,5 hPa 0,0 l/m 0 min 0 min 147 W/m 14,6 km/h (3 Bft)
09.07.2015 09:20 14,4 C 13,9 C 85 % 0 lf 1018,6 hPa 0,0 l/m 0 min 0 min 131 W/m 14,6 km/h (3 Bft)
09.07.2015 09:22 14,4 C 13,9 C 85 % 0 lf 1018,6 hPa 0,0 l/m 0 min 0 min 117 W/m 16,7 km/h (3 Bft)
09.07.2015 09:24 14,4 C 13,9 C 84 % 0 lf 1018,6 hPa 0,0 l/m 0 min 0 min 119 W/m 14,6 km/h (3 Bft)
09.07.2015 09:26 14,4 C 13,3 C 84 % 0 lf 1018,7 hPa 0,0 l/m 0 min 0 min 124 W/m 20,9 km/h (4 Bft)
09.07.2015 09:28 14,4 C 13,3 C 84 % 0 lf 1018,7 hPa 0,0 l/m 0 min 0 min 124 W/m 18,8 km/h (3 Bft)
09.07.2015 09:30 14,4 C 13,3 C 84 % 0 lf 1018,7 hPa 0,0 l/m 0 min 0 min 142 W/m 16,7 km/h (3 Bft)
09.07.2015 09:32 14,4 C 13,9 C 84 % 0 lf 1018,7 hPa 0,0 l/m 0 min 0 min 164 W/m 18,8 km/h (3 Bft)
09.07.2015 09:34 14,4 C 13,9 C 84 % 0 lf 1018,7 hPa 0,0 l/m 0 min 0 min 193 W/m 18,8 km/h (3 Bft)
09.07.2015 09:36 14,4 C 13,9 C 84 % 0 lf 1018,7 hPa 0,0 l/m 0 min 0 min 245 W/m 16,7 km/h (3 Bft)
09.07.2015 09:38 14,4 C 13,9 C 84 % 0 lf 1018,7 hPa 0,0 l/m 0 min 0 min 274 W/m 23,0 km/h (4 Bft)
09.07.2015 09:40 14,4 C 13,9 C 84 % 0 lf 1018,8 hPa 0,0 l/m 2 min 0 min 289 W/m 23,0 km/h (4 Bft)
09.07.2015 09:42 14,5 C 14,4 C 83 % 0 lf 1018,8 hPa 0,0 l/m 2 min 0 min 288 W/m 14,6 km/h (3 Bft)
09.07.2015 09:44 14,6 C 14,4 C 84 % 0 lf 1018,8 hPa 0,0 l/m 0 min 0 min 274 W/m 12,6 km/h (3 Bft)
09.07.2015 09:46 14,6 C 14,4 C 84 % 0 lf 1018,8 hPa 0,0 l/m 0 min 0 min 248 W/m 18,8 km/h (3 Bft)
09.07.2015 09:48 14,6 C 14,4 C 83 % 0 lf 1018,9 hPa 0,0 l/m 0 min 0 min 238 W/m 20,9 km/h (4 Bft)
09.07.2015 09:50 14,7 C 14,4 C 83 % 0 lf 1018,8 hPa 0,0 l/m 0 min 0 min 277 W/m 16,7 km/h (3 Bft)
09.07.2015 09:52 14,7 C 14,4 C 83 % 0 lf 1018,9 hPa 0,0 l/m 2 min 0 min 315 W/m 20,9 km/h (4 Bft)
09.07.2015 09:54 14,8 C 15,0 C 83 % 0 lf 1018,9 hPa 0,0 l/m 2 min 0 min 307 W/m 18,8 km/h (3 Bft)
09.07.2015 09:56 14,8 C 15,0 C 83 % 0 lf 1018,9 hPa 0,0 l/m 2 min 0 min 312 W/m 10,5 km/h (2 Bft)
09.07.2015 09:58 14,8 C 15,0 C 82 % 0 lf 1018,9 hPa 0,0 l/m 2 min 0 min 353 W/m 18,8 km/h (3 Bft)
09.07.2015 10:00 14,9 C 15,0 C 83 % 0 lf 1018,9 hPa 0,0 l/m 2 min 0 min 327 W/m 10,5 km/h (2 Bft)
09.07.2015 10:02 15,0 C 15,0 C 82 % 0 lf 1018,9 hPa 0,0 l/m 2 min 0 min 361 W/m 12,6 km/h (3 Bft)
09.07.2015 10:04 15,1 C 16,1 C 83 % 0 lf 1018,9 hPa 0,0 l/m 2 min 0 min 671 W/m 12,6 km/h (3 Bft)
09.07.2015 10:06 15,2 C 16,7 C 83 % 0 lf 1018,9 hPa 0,0 l/m 2 min 0 min 501 W/m 18,8 km/h (3 Bft)
09.07.2015 10:08 15,3 C 16,7 C 82 % 0 lf 1018,9 hPa 0,0 l/m 2 min 0 min 351 W/m 14,6 km/h (3 Bft)
09.07.2015 10:10 15,4 C 16,1 C 82 % 0 lf 1018,9 hPa 0,0 l/m 2 min 0 min 328 W/m 10,5 km/h (2 Bft)
09.07.2015 10:12 15,5 C 16,1 C 82 % 0 lf 1018,9 hPa 0,0 l/m 0 min 0 min 260 W/m 16,7 km/h (3 Bft)
09.07.2015 10:14 15,6 C 15,6 C 81 % 0 lf 1019,0 hPa 0,0 l/m 0 min 0 min 245 W/m 20,9 km/h (4 Bft)
09.07.2015 10:16 15,6 C 15,0 C 79 % 0 lf 1019,0 hPa 0,0 l/m 0 min 0 min 180 W/m 23,0 km/h (4 Bft)
09.07.2015 10:18 15,6 C 15,0 C 78 % 0 lf 1019,0 hPa 0,0 l/m 0 min 0 min 176 W/m 18,8 km/h (3 Bft)
09.07.2015 10:20 15,6 C 14,4 C 77 % 0 lf 1019,1 hPa 0,0 l/m 0 min 0 min 210 W/m 16,7 km/h (3 Bft)
09.07.2015 10:22 15,6 C 14,4 C 77 % 0 lf 1019,0 hPa 0,0 l/m 0 min 0 min 226 W/m 18,8 km/h (3 Bft)
09.07.2015 10:24 15,6 C 14,4 C 76 % 0 lf 1019,0 hPa 0,0 l/m 0 min 0 min 264 W/m 20,9 km/h (4 Bft)
09.07.2015 10:26 15,6 C 14,4 C 76 % 0 lf 1019,0 hPa 0,0 l/m 0 min 0 min 258 W/m 16,7 km/h (3 Bft)
09.07.2015 10:28 15,5 C 14,4 C 76 % 0 lf 1019,0 hPa 0,0 l/m 0 min 0 min 219 W/m 20,9 km/h (4 Bft)
09.07.2015 10:30 15,5 C 14,4 C 76 % 0 lf 1019,0 hPa 0,0 l/m 0 min 0 min 192 W/m 16,7 km/h (3 Bft)
09.07.2015 10:32 15,5 C 14,4 C 76 % 0 lf 1019,1 hPa 0,0 l/m 0 min 0 min 158 W/m 20,9 km/h (4 Bft)
09.07.2015 10:34 15,5 C 14,4 C 76 % 0 lf 1019,1 hPa 0,0 l/m 0 min 0 min 180 W/m 18,8 km/h (3 Bft)
09.07.2015 10:36 15,4 C 14,4 C 77 % 0 lf 1019,1 hPa 0,0 l/m 0 min 0 min 189 W/m 23,0 km/h (4 Bft)
09.07.2015 10:38 15,4 C 14,4 C 76 % 0 lf 1019,2 hPa 0,0 l/m 0 min 0 min 212 W/m 18,8 km/h (3 Bft)
09.07.2015 10:40 15,4 C 14,4 C 77 % 0 lf 1019,2 hPa 0,0 l/m 0 min 0 min 223 W/m 18,8 km/h (3 Bft)
09.07.2015 10:42 15,4 C 15,0 C 77 % 0 lf 1019,2 hPa 0,0 l/m 0 min 0 min 269 W/m 16,7 km/h (3 Bft)
09.07.2015 10:44 15,4 C 15,6 C 77 % 0 lf 1019,2 hPa 0,0 l/m 2 min 0 min 439 W/m 16,7 km/h (3 Bft)
09.07.2015 10:46 15,4 C 15,0 C 77 % 0 lf 1019,2 hPa 0,0 l/m 0 min 0 min 311 W/m 20,9 km/h (4 Bft)
09.07.2015 10:48 15,4 C 15,0 C 76 % 0 lf 1019,3 hPa 0,0 l/m 0 min 0 min 199 W/m 16,7 km/h (3 Bft)
09.07.2015 10:50 15,4 C 13,9 C 76 % 15 lf 1019,3 hPa 0,0 l/m 0 min 2 min 184 W/m 20,9 km/h (4 Bft)
09.07.2015 10:52 15,4 C 12,8 C 77 % 15 lf 1019,4 hPa 0,0 l/m 0 min 2 min 187 W/m 10,5 km/h (2 Bft)
09.07.2015 10:54 15,4 C 12,8 C 78 % 15 lf 1019,3 hPa 0,0 l/m 0 min 2 min 241 W/m 16,7 km/h (3 Bft)
09.07.2015 10:56 15,4 C 12,2 C 79 % 15 lf 1019,4 hPa 0,0 l/m 0 min 2 min 301 W/m 27,2 km/h (4 Bft)
09.07.2015 10:58 15,3 C 12,2 C 79 % 15 lf 1019,5 hPa 0,0 l/m 0 min 2 min 303 W/m 16,7 km/h (3 Bft)
09.07.2015 11:00 15,3 C 12,8 C 80 % 15 lf 1019,5 hPa 0,0 l/m 0 min 2 min 289 W/m 12,6 km/h (3 Bft)
09.07.2015 11:02 15,3 C 12,8 C 80 % 15 lf 1019,4 hPa 0,0 l/m 0 min 2 min 276 W/m 10,5 km/h (2 Bft)
09.07.2015 11:04 15,3 C 13,3 C 81 % 15 lf 1019,4 hPa 0,0 l/m 0 min 2 min 228 W/m 12,6 km/h (3 Bft)
09.07.2015 11:06 15,3 C 13,3 C 82 % 15 lf 1019,5 hPa 0,0 l/m 0 min 2 min 182 W/m 14,6 km/h (3 Bft)
09.07.2015 11:08 15,3 C 12,2 C 82 % 15 lf 1019,6 hPa 0,0 l/m 0 min 2 min 160 W/m 18,8 km/h (3 Bft)
09.07.2015 11:10 15,2 C 12,2 C 81 % 15 lf 1019,6 hPa 0,0 l/m 0 min 2 min 155 W/m 18,8 km/h (3 Bft)
09.07.2015 11:12 15,2 C 12,2 C 81 % 15 lf 1019,6 hPa 0,0 l/m 0 min 0 min 149 W/m 14,6 km/h (3 Bft)
09.07.2015 11:14 15,2 C 12,2 C 81 % 15 lf 1019,6 hPa 0,0 l/m 0 min 2 min 155 W/m 23,0 km/h (4 Bft)
09.07.2015 11:16 15,1 C 12,2 C 81 % 15 lf 1019,7 hPa 0,0 l/m 0 min 2 min 173 W/m 23,0 km/h (4 Bft)
09.07.2015 11:18 15,0 C 12,2 C 80 % 15 lf 1019,7 hPa 0,0 l/m 0 min 2 min 203 W/m 20,9 km/h (4 Bft)
09.07.2015 11:20 14,9 C 12,8 C 80 % 15 lf 1019,7 hPa 0,0 l/m 0 min 2 min 240 W/m 14,6 km/h (3 Bft)
09.07.2015 11:22 14,9 C 12,2 C 81 % 15 lf 1019,8 hPa 0,0 l/m 0 min 2 min 245 W/m 20,9 km/h (4 Bft)
09.07.2015 11:24 14,9 C 12,8 C 82 % 15 lf 1019,8 hPa 0,0 l/m 0 min 0 min 245 W/m 20,9 km/h (4 Bft)
09.07.2015 11:26 14,9 C 12,8 C 82 % 15 lf 1019,8 hPa 0,0 l/m 0 min 2 min 248 W/m 18,8 km/h (3 Bft)
09.07.2015 11:28 14,9 C 13,3 C 82 % 15 lf 1019,8 hPa 0,0 l/m 0 min 2 min 267 W/m 16,7 km/h (3 Bft)
09.07.2015 11:30 14,9 C 13,3 C 82 % 15 lf 1019,8 hPa 0,0 l/m 0 min 2 min 291 W/m 20,9 km/h (4 Bft)
09.07.2015 11:32 14,9 C 12,8 C 82 % 15 lf 1020,0 hPa 0,0 l/m 0 min 2 min 286 W/m 18,8 km/h (3 Bft)
09.07.2015 11:34 14,9 C 12,8 C 82 % 15 lf 1019,9 hPa 0,0 l/m 0 min 2 min 260 W/m 23,0 km/h (4 Bft)
09.07.2015 11:36 14,8 C 12,8 C 81 % 15 lf 1020,0 hPa 0,0 l/m 0 min 2 min 247 W/m 16,7 km/h (3 Bft)
09.07.2015 11:38 14,8 C 12,8 C 81 % 15 lf 1019,9 hPa 0,0 l/m 0 min 2 min 261 W/m 12,6 km/h (3 Bft)
09.07.2015 11:40 14,8 C 12,2 C 81 % 15 lf 1019,8 hPa 0,0 l/m 0 min 2 min 267 W/m 14,6 km/h (3 Bft)
09.07.2015 11:42 14,8 C 12,8 C 82 % 15 lf 1019,9 hPa 0,0 l/m 0 min 2 min 270 W/m 8,4 km/h (2 Bft)
09.07.2015 11:44 14,8 C 12,8 C 82 % 15 lf 1019,9 hPa 0,2 l/m 0 min 2 min 296 W/m 14,6 km/h (3 Bft)
09.07.2015 11:46 14,8 C 12,8 C 82 % 15 lf 1020,0 hPa 0,0 l/m 0 min 2 min 362 W/m 16,7 km/h (3 Bft)
09.07.2015 11:48 14,9 C 13,3 C 83 % 15 lf 1020,0 hPa 0,0 l/m 2 min 2 min 459 W/m 14,6 km/h (3 Bft)
09.07.2015 11:50 14,9 C 13,9 C 84 % 15 lf 1020,0 hPa 0,0 l/m 2 min 0 min 500 W/m 6,3 km/h (2 Bft)
09.07.2015 11:52 15,1 C 14,4 C 84 % 15 lf 1020,0 hPa 0,0 l/m 2 min 0 min 442 W/m 12,6 km/h (3 Bft)
09.07.2015 11:54 15,2 C 15,0 C 85 % 15 lf 1020,0 hPa 0,0 l/m 2 min 0 min 507 W/m 14,6 km/h (3 Bft)
09.07.2015 11:56 15,3 C 17,8 C 85 % 14 lf 1019,8 hPa 0,0 l/m 2 min 0 min 514 W/m 12,6 km/h (3 Bft)
09.07.2015 11:58 15,6 C 18,9 C 86 % 6 lf 1020,0 hPa 0,0 l/m 2 min 0 min 467 W/m 14,6 km/h (3 Bft)
09.07.2015 12:00 15,7 C 20,0 C 85 % 2 lf 1019,9 hPa 0,0 l/m 2 min 0 min 487 W/m 10,5 km/h (2 Bft)
09.07.2015 12:03 16,1 C 20,0 C 84 % 0 lf 1020,0 hPa 0,0 l/m 2 min 0 min 810 W/m 12,6 km/h (3 Bft)
09.07.2015 12:04 16,2 C 20,6 C 84 % 0 lf 1020,0 hPa 0,0 l/m 1 min 0 min 746 W/m 12,6 km/h (3 Bft)
09.07.2015 12:06 16,3 C 19,4 C 83 % 0 lf 1020,0 hPa 0,0 l/m 2 min 0 min 810 W/m 8,4 km/h (2 Bft)
09.07.2015 12:08 16,4 C 20,0 C 82 % 0 lf 1020,1 hPa 0,0 l/m 2 min 0 min 849 W/m 16,7 km/h (3 Bft)
09.07.2015 12:10 16,6 C 21,1 C 82 % 0 lf 1020,1 hPa 0,0 l/m 2 min 0 min 928 W/m 14,6 km/h (3 Bft)
09.07.2015 12:12 16,7 C 21,1 C 81 % 0 lf 1020,1 hPa 0,0 l/m 2 min 0 min 929 W/m 12,6 km/h (3 Bft)
09.07.2015 12:14 16,9 C 21,1 C 80 % 0 lf 1020,0 hPa 0,0 l/m 2 min 0 min 932 W/m 10,5 km/h (2 Bft)
09.07.2015 12:16 17,1 C 21,7 C 80 % 0 lf 1020,1 hPa 0,0 l/m 2 min 0 min 894 W/m 14,6 km/h (3 Bft)
09.07.2015 12:18 17,2 C 21,7 C 79 % 0 lf 1020,0 hPa 0,0 l/m 2 min 0 min 937 W/m 10,5 km/h (2 Bft)
09.07.2015 12:20 17,4 C 22,2 C 79 % 0 lf 1020,1 hPa 0,0 l/m 2 min 0 min 884 W/m 16,7 km/h (3 Bft)
09.07.2015 12:22 17,5 C 22,2 C 78 % 0 lf 1020,0 hPa 0,0 l/m 2 min 0 min 801 W/m 10,5 km/h (2 Bft)
09.07.2015 12:24 17,7 C 22,2 C 77 % 0 lf 1020,1 hPa 0,0 l/m 0 min 0 min 330 W/m 20,9 km/h (4 Bft)
09.07.2015 12:26 17,8 C 21,7 C 76 % 0 lf 1020,2 hPa 0,0 l/m 0 min 0 min 366 W/m 14,6 km/h (3 Bft)
09.07.2015 12:28 18,0 C 21,7 C 76 % 0 lf 1020,1 hPa 0,0 l/m 0 min 0 min 369 W/m 16,7 km/h (3 Bft)
09.07.2015 12:30 18,0 C 20,6 C 74 % 0 lf 1020,1 hPa 0,0 l/m 0 min 0 min 291 W/m 20,9 km/h (4 Bft)
09.07.2015 12:32 18,1 C 20,6 C 73 % 0 lf 1020,1 hPa 0,0 l/m 0 min 0 min 253 W/m 20,9 km/h (4 Bft)
09.07.2015 12:34 18,1 C 19,4 C 72 % 0 lf 1020,1 hPa 0,0 l/m 0 min 0 min 237 W/m 16,7 km/h (3 Bft)
09.07.2015 12:36 18,1 C 18,9 C 71 % 0 lf 1020,1 hPa 0,0 l/m 0 min 0 min 406 W/m 14,6 km/h (3 Bft)
09.07.2015 12:38 18,2 C 20,0 C 72 % 0 lf 1020,1 hPa 0,0 l/m 2 min 0 min 955 W/m 12,6 km/h (3 Bft)
09.07.2015 12:40 18,2 C 20,0 C 71 % 0 lf 1020,1 hPa 0,0 l/m 2 min 0 min 958 W/m 20,9 km/h (4 Bft)
09.07.2015 12:42 18,2 C 20,0 C 71 % 0 lf 1020,1 hPa 0,0 l/m 2 min 0 min 987 W/m 18,8 km/h (3 Bft)
09.07.2015 12:44 18,2 C 20,0 C 69 % 0 lf 1020,1 hPa 0,0 l/m 2 min 0 min 962 W/m 35,6 km/h (5 Bft)
09.07.2015 12:46 18,3 C 20,6 C 68 % 0 lf 1020,1 hPa 0,0 l/m 2 min 0 min 948 W/m 29,3 km/h (5 Bft)
09.07.2015 12:48 18,4 C 20,6 C 67 % 0 lf 1020,1 hPa 0,0 l/m 2 min 0 min 943 W/m 29,3 km/h (5 Bft)
09.07.2015 12:50 18,5 C 20,6 C 66 % 0 lf 1020,1 hPa 0,0 l/m 2 min 0 min 954 W/m 33,5 km/h (5 Bft)
09.07.2015 12:52 18,6 C 20,6 C 68 % 0 lf 1020,1 hPa 0,0 l/m 2 min 0 min 998 W/m 31,4 km/h (5 Bft)
09.07.2015 12:54 18,8 C 20,6 C 67 % 0 lf 1020,2 hPa 0,0 l/m 2 min 0 min 1024 W/m 25,1 km/h (4 Bft)
09.07.2015 12:56 18,9 C 20,0 C 65 % 0 lf 1020,2 hPa 0,0 l/m 2 min 0 min 1069 W/m 27,2 km/h (4 Bft)
09.07.2015 12:58 18,9 C 19,4 C 65 % 0 lf 1020,2 hPa 0,0 l/m 2 min 0 min 652 W/m 27,2 km/h (4 Bft)
09.07.2015 13:00 18,9 C 18,3 C 64 % 0 lf 1020,2 hPa 0,0 l/m 0 min 0 min 288 W/m 27,2 km/h (4 Bft)
09.07.2015 13:02 18,9 C 18,9 C 66 % 0 lf 1020,2 hPa 0,0 l/m 2 min 0 min 950 W/m 27,2 km/h (4 Bft)
09.07.2015 13:04 18,9 C 18,3 C 64 % 0 lf 1020,2 hPa 0,0 l/m 2 min 0 min 1051 W/m 27,2 km/h (4 Bft)
09.07.2015 13:06 18,9 C 18,3 C 63 % 0 lf 1020,1 hPa 0,0 l/m 2 min 0 min 1051 W/m 23,0 km/h (4 Bft)
09.07.2015 13:08 18,8 C 18,3 C 63 % 0 lf 1020,2 hPa 0,0 l/m 2 min 0 min 700 W/m 20,9 km/h (4 Bft)
09.07.2015 13:10 18,8 C 18,3 C 65 % 0 lf 1020,2 hPa 0,0 l/m 0 min 0 min 262 W/m 16,7 km/h (3 Bft)
09.07.2015 13:12 18,8 C 17,8 C 65 % 0 lf 1020,3 hPa 0,0 l/m 0 min 0 min 245 W/m 14,6 km/h (3 Bft)
09.07.2015 13:14 18,8 C 17,8 C 64 % 0 lf 1020,3 hPa 0,0 l/m 0 min 0 min 206 W/m 25,1 km/h (4 Bft)
09.07.2015 13:16 18,7 C 18,3 C 64 % 0 lf 1020,3 hPa 0,0 l/m 2 min 0 min 978 W/m 25,1 km/h (4 Bft)
09.07.2015 13:18 18,7 C 19,4 C 64 % 0 lf 1020,3 hPa 0,0 l/m 2 min 0 min 968 W/m 27,2 km/h (4 Bft)
09.07.2015 13:20 18,9 C 20,6 C 66 % 0 lf 1020,3 hPa 0,0 l/m 2 min 0 min 971 W/m 25,1 km/h (4 Bft)
09.07.2015 13:22 18,9 C 21,1 C 65 % 0 lf 1020,2 hPa 0,0 l/m 2 min 0 min 975 W/m 27,2 km/h (4 Bft)
09.07.2015 13:24 19,1 C 21,1 C 63 % 0 lf 1020,3 hPa 0,0 l/m 2 min 0 min 983 W/m 29,3 km/h (5 Bft)
09.07.2015 13:26 19,2 C 20,6 C 65 % 0 lf 1020,3 hPa 0,0 l/m 2 min 0 min 1012 W/m 27,2 km/h (4 Bft)
09.07.2015 13:28 19,4 C 20,6 C 63 % 0 lf 1020,3 hPa 0,0 l/m 2 min 0 min 1058 W/m 29,3 km/h (5 Bft)
09.07.2015 13:30 19,6 C 20,6 C 63 % 0 lf 1020,3 hPa 0,0 l/m 2 min 0 min 1058 W/m 25,1 km/h (4 Bft)
09.07.2015 13:32 19,7 C 19,4 C 61 % 0 lf 1020,3 hPa 0,0 l/m 0 min 0 min 400 W/m 23,0 km/h (4 Bft)
09.07.2015 13:34 19,6 C 17,8 C 59 % 0 lf 1020,3 hPa 0,0 l/m 0 min 0 min 252 W/m 29,3 km/h (5 Bft)
09.07.2015 13:36 19,5 C 17,8 C 60 % 0 lf 1020,3 hPa 0,0 l/m 0 min 0 min 238 W/m 25,1 km/h (4 Bft)
09.07.2015 13:38 19,4 C 17,8 C 61 % 0 lf 1020,2 hPa 0,0 l/m 0 min 0 min 258 W/m 25,1 km/h (4 Bft)
09.07.2015 13:40 19,3 C 18,3 C 61 % 0 lf 1020,3 hPa 0,0 l/m 0 min 0 min 304 W/m 20,9 km/h (4 Bft)
09.07.2015 13:42 19,2 C 17,8 C 59 % 0 lf 1020,3 hPa 0,0 l/m 0 min 0 min 365 W/m 25,1 km/h (4 Bft)
09.07.2015 13:44 19,2 C 17,8 C 59 % 0 lf 1020,3 hPa 0,0 l/m 0 min 0 min 384 W/m 31,4 km/h (5 Bft)
09.07.2015 13:46 19,1 C 17,8 C 59 % 0 lf 1020,3 hPa 0,0 l/m 0 min 0 min 398 W/m 23,0 km/h (4 Bft)
09.07.2015 13:48 19,1 C 18,3 C 61 % 0 lf 1020,3 hPa 0,0 l/m 2 min 0 min 920 W/m 20,9 km/h (4 Bft)
09.07.2015 13:50 19,1 C 18,9 C 62 % 0 lf 1020,3 hPa 0,0 l/m 2 min 0 min 1065 W/m 25,1 km/h (4 Bft)
09.07.2015 13:52 19,2 C 18,9 C 61 % 0 lf 1020,3 hPa 0,0 l/m 2 min 0 min 886 W/m 16,7 km/h (3 Bft)
09.07.2015 13:54 19,2 C 18,9 C 62 % 0 lf 1020,4 hPa 0,0 l/m 0 min 0 min 359 W/m 29,3 km/h (5 Bft)
09.07.2015 13:56 19,2 C 18,3 C 61 % 0 lf 1020,5 hPa 0,0 l/m 0 min 0 min 413 W/m 27,2 km/h (4 Bft)
09.07.2015 13:58 19,2 C 18,9 C 62 % 0 lf 1020,4 hPa 0,0 l/m 2 min 0 min 634 W/m 23,0 km/h (4 Bft)
09.07.2015 14:00 19,2 C 18,3 C 61 % 0 lf 1020,4 hPa 0,0 l/m 2 min 0 min 751 W/m 33,5 km/h (5 Bft)
09.07.2015 14:02 19,2 C 18,3 C 62 % 0 lf 1020,4 hPa 0,0 l/m 2 min 0 min 1008 W/m 16,7 km/h (3 Bft)
09.07.2015 14:04 19,2 C 19,4 C 64 % 0 lf 1020,4 hPa 0,0 l/m 2 min 0 min 1059 W/m 16,7 km/h (3 Bft)
09.07.2015 14:06 19,3 C 18,9 C 62 % 0 lf 1020,4 hPa 0,0 l/m 2 min 0 min 1095 W/m 27,2 km/h (4 Bft)
09.07.2015 14:08 19,2 C 18,3 C 62 % 0 lf 1020,4 hPa 0,0 l/m 2 min 0 min 1001 W/m 25,1 km/h (4 Bft)
09.07.2015 14:10 19,2 C 18,9 C 62 % 0 lf 1020,5 hPa 0,0 l/m 2 min 0 min 539 W/m 27,2 km/h (4 Bft)
09.07.2015 14:12 19,3 C 19,4 C 65 % 0 lf 1020,5 hPa 0,0 l/m 2 min 0 min 1114 W/m 16,7 km/h (3 Bft)
09.07.2015 14:14 19,4 C 19,4 C 66 % 0 lf 1020,6 hPa 0,0 l/m 2 min 0 min 1008 W/m 18,8 km/h (3 Bft)
09.07.2015 14:16 19,4 C 18,3 C 62 % 0 lf 1020,5 hPa 0,0 l/m 0 min 0 min 254 W/m 31,4 km/h (5 Bft)
09.07.2015 14:18 19,4 C 17,8 C 61 % 0 lf 1020,6 hPa 0,0 l/m 0 min 0 min 231 W/m 27,2 km/h (4 Bft)
09.07.2015 14:20 19,3 C 17,2 C 60 % 0 lf 1020,6 hPa 0,0 l/m 0 min 0 min 182 W/m 27,2 km/h (4 Bft)
09.07.2015 14:22 19,2 C 17,8 C 62 % 0 lf 1020,6 hPa 0,0 l/m 0 min 0 min 160 W/m 25,1 km/h (4 Bft)
09.07.2015 14:24 19,2 C 17,8 C 63 % 0 lf 1020,6 hPa 0,0 l/m 2 min 0 min 827 W/m 20,9 km/h (4 Bft)
09.07.2015 14:26 19,2 C 18,9 C 62 % 0 lf 1020,6 hPa 0,0 l/m 2 min 0 min 940 W/m 25,1 km/h (4 Bft)
09.07.2015 14:28 19,3 C 18,9 C 62 % 0 lf 1020,6 hPa 0,0 l/m 2 min 0 min 944 W/m 20,9 km/h (4 Bft)
09.07.2015 14:30 19,4 C 19,4 C 62 % 0 lf 1020,6 hPa 0,0 l/m 2 min 0 min 959 W/m 25,1 km/h (4 Bft)
09.07.2015 14:32 19,5 C 18,9 C 59 % 0 lf 1020,6 hPa 0,0 l/m 2 min 0 min 986 W/m 27,2 km/h (4 Bft)
09.07.2015 14:34 19,5 C 18,9 C 57 % 0 lf 1020,6 hPa 0,0 l/m 2 min 0 min 990 W/m 25,1 km/h (4 Bft)
09.07.2015 14:36 19,5 C 18,9 C 58 % 0 lf 1020,6 hPa 0,0 l/m 2 min 0 min 989 W/m 16,7 km/h (3 Bft)
09.07.2015 14:38 19,6 C 19,4 C 59 % 0 lf 1020,6 hPa 0,0 l/m 2 min 0 min 978 W/m 20,9 km/h (4 Bft)
09.07.2015 14:40 19,7 C 20,0 C 61 % 0 lf 1020,7 hPa 0,0 l/m 2 min 0 min 979 W/m 31,4 km/h (5 Bft)
09.07.2015 14:42 19,8 C 20,0 C 60 % 0 lf 1020,7 hPa 0,0 l/m 2 min 0 min 990 W/m 27,2 km/h (4 Bft)
09.07.2015 14:44 19,9 C 20,0 C 59 % 0 lf 1020,7 hPa 0,0 l/m 2 min 0 min 955 W/m 31,4 km/h (5 Bft)
09.07.2015 14:46 20,1 C 20,0 C 60 % 0 lf 1020,6 hPa 0,0 l/m 2 min 0 min 974 W/m 25,1 km/h (4 Bft)
09.07.2015 14:48 20,2 C 20,0 C 61 % 0 lf 1020,7 hPa 0,0 l/m 2 min 0 min 983 W/m 27,2 km/h (4 Bft)
09.07.2015 14:49 20,3 C 20,6 C 61 % 0 lf 1020,7 hPa 0,0 l/m 1 min 0 min 1000 W/m 27,2 km/h (4 Bft)
09.07.2015 14:50 20,4 C 20,6 C 61 % 0 lf 1020,7 hPa 0,0 l/m 1 min 0 min 1000 W/m 20,9 km/h (4 Bft)
09.07.2015 14:52 20,4 C 20,0 C 57 % 0 lf 1020,7 hPa 0,0 l/m 2 min 0 min 1004 W/m 20,9 km/h (4 Bft)
09.07.2015 14:54 20,5 C 20,0 C 58 % 0 lf 1020,7 hPa 0,0 l/m 2 min 0 min 1051 W/m 23,0 km/h (4 Bft)
09.07.2015 14:56 20,5 C 20,0 C 57 % 0 lf 1020,7 hPa 0,0 l/m 2 min 0 min 1055 W/m 31,4 km/h (5 Bft)
09.07.2015 14:58 20,5 C 20,0 C 56 % 0 lf 1020,7 hPa 0,0 l/m 2 min 0 min 1040 W/m 20,9 km/h (4 Bft)
09.07.2015 15:00 20,5 C 19,4 C 55 % 0 lf 1020,8 hPa 0,0 l/m 2 min 0 min 967 W/m 27,2 km/h (4 Bft)
09.07.2015 15:02 20,4 C 19,4 C 55 % 0 lf 1020,8 hPa 0,0 l/m 2 min 0 min 979 W/m 27,2 km/h (4 Bft)
09.07.2015 15:04 20,3 C 18,9 C 56 % 0 lf 1020,8 hPa 0,0 l/m 2 min 0 min 744 W/m 25,1 km/h (4 Bft)
09.07.2015 15:06 20,3 C 19,4 C 58 % 0 lf 1020,8 hPa 0,0 l/m 0 min 0 min 307 W/m 23,0 km/h (4 Bft)
09.07.2015 15:08 20,2 C 18,9 C 57 % 0 lf 1020,8 hPa 0,0 l/m 0 min 0 min 213 W/m 23,0 km/h (4 Bft)
09.07.2015 15:10 20,1 C 18,3 C 56 % 0 lf 1020,8 hPa 0,0 l/m 0 min 0 min 230 W/m 29,3 km/h (5 Bft)
09.07.2015 15:12 20,0 C 18,3 C 57 % 0 lf 1020,8 hPa 0,0 l/m 0 min 0 min 243 W/m 20,9 km/h (4 Bft)
09.07.2015 15:14 19,9 C 18,3 C 58 % 0 lf 1020,7 hPa 0,0 l/m 0 min 0 min 279 W/m 18,8 km/h (3 Bft)
09.07.2015 15:16 19,8 C 17,8 C 56 % 0 lf 1020,8 hPa 0,0 l/m 0 min 0 min 286 W/m 20,9 km/h (4 Bft)
09.07.2015 15:18 19,7 C 17,8 C 57 % 0 lf 1020,8 hPa 0,0 l/m 0 min 0 min 311 W/m 23,0 km/h (4 Bft)
09.07.2015 15:20 19,6 C 18,3 C 57 % 0 lf 1020,8 hPa 0,0 l/m 2 min 0 min 515 W/m 27,2 km/h (4 Bft)
09.07.2015 15:22 19,6 C 18,9 C 57 % 0 lf 1020,8 hPa 0,0 l/m 2 min 0 min 876 W/m 31,4 km/h (5 Bft)
09.07.2015 15:24 19,7 C 19,4 C 57 % 0 lf 1020,8 hPa 0,0 l/m 2 min 0 min 917 W/m 29,3 km/h (5 Bft)
09.07.2015 15:26 19,7 C 19,4 C 56 % 0 lf 1020,9 hPa 0,0 l/m 2 min 0 min 929 W/m 25,1 km/h (4 Bft)
09.07.2015 15:28 19,8 C 20,0 C 55 % 0 lf 1020,8 hPa 0,0 l/m 2 min 0 min 858 W/m 23,0 km/h (4 Bft)
09.07.2015 15:30 19,9 C 20,0 C 56 % 0 lf 1020,9 hPa 0,0 l/m 2 min 0 min 994 W/m 33,5 km/h (5 Bft)
09.07.2015 15:32 19,9 C 19,4 C 55 % 0 lf 1020,9 hPa 0,0 l/m 2 min 0 min 565 W/m 31,4 km/h (5 Bft)
09.07.2015 15:34 20,0 C 19,4 C 55 % 0 lf 1020,9 hPa 0,0 l/m 0 min 0 min 331 W/m 33,5 km/h (5 Bft)
09.07.2015 15:36 20,1 C 19,4 C 54 % 0 lf 1020,9 hPa 0,0 l/m 0 min 0 min 368 W/m 29,3 km/h (5 Bft)
09.07.2015 15:38 20,1 C 19,4 C 53 % 0 lf 1021,0 hPa 0,0 l/m 2 min 0 min 879 W/m 18,8 km/h (3 Bft)
09.07.2015 15:40 20,2 C 20,0 C 54 % 0 lf 1021,0 hPa 0,0 l/m 2 min 0 min 856 W/m 31,4 km/h (5 Bft)
09.07.2015 15:42 20,4 C 20,0 C 53 % 0 lf 1021,0 hPa 0,0 l/m 2 min 0 min 837 W/m 20,9 km/h (4 Bft)
09.07.2015 15:44 20,4 C 20,0 C 52 % 0 lf 1020,9 hPa 0,0 l/m 2 min 0 min 834 W/m 29,3 km/h (5 Bft)
09.07.2015 15:46 20,6 C 20,0 C 53 % 0 lf 1021,1 hPa 0,0 l/m 2 min 0 min 828 W/m 29,3 km/h (5 Bft)
09.07.2015 15:48 20,7 C 20,0 C 52 % 0 lf 1021,0 hPa 0,0 l/m 2 min 0 min 829 W/m 27,2 km/h (4 Bft)
09.07.2015 15:50 20,8 C 20,0 C 53 % 0 lf 1021,1 hPa 0,0 l/m 2 min 0 min 838 W/m 27,2 km/h (4 Bft)
09.07.2015 15:52 20,9 C 20,6 C 54 % 0 lf 1020,9 hPa 0,0 l/m 2 min 0 min 851 W/m 16,7 km/h (3 Bft)
09.07.2015 15:54 21,0 C 21,1 C 56 % 0 lf 1020,9 hPa 0,0 l/m 2 min 0 min 873 W/m 20,9 km/h (4 Bft)
09.07.2015 15:56 21,1 C 21,1 C 53 % 0 lf 1021,0 hPa 0,0 l/m 2 min 0 min 888 W/m 23,0 km/h (4 Bft)
09.07.2015 15:58 21,2 C 20,0 C 49 % 0 lf 1021,0 hPa 0,0 l/m 2 min 0 min 879 W/m 37,7 km/h (5 Bft)
09.07.2015 16:00 21,2 C 20,0 C 50 % 0 lf 1021,1 hPa 0,0 l/m 2 min 0 min 877 W/m 35,6 km/h (5 Bft)
09.07.2015 16:02 21,1 C 20,0 C 49 % 0 lf 1021,1 hPa 0,0 l/m 2 min 0 min 888 W/m 27,2 km/h (4 Bft)
09.07.2015 16:04 21,0 C 20,0 C 49 % 0 lf 1021,1 hPa 0,0 l/m 2 min 0 min 902 W/m 29,3 km/h (5 Bft)
09.07.2015 16:06 21,0 C 20,6 C 51 % 0 lf 1021,1 hPa 0,0 l/m 2 min 0 min 904 W/m 20,9 km/h (4 Bft)
09.07.2015 16:08 21,1 C 20,6 C 50 % 0 lf 1021,1 hPa 0,0 l/m 2 min 0 min 912 W/m 27,2 km/h (4 Bft)
09.07.2015 16:10 21,1 C 20,6 C 50 % 0 lf 1021,0 hPa 0,0 l/m 2 min 0 min 862 W/m 14,6 km/h (3 Bft)
09.07.2015 16:12 21,2 C 20,6 C 53 % 0 lf 1021,1 hPa 0,0 l/m 2 min 0 min 811 W/m 20,9 km/h (4 Bft)
09.07.2015 16:14 21,3 C 20,6 C 51 % 0 lf 1021,1 hPa 0,0 l/m 2 min 0 min 794 W/m 18,8 km/h (3 Bft)
09.07.2015 16:16 21,3 C 21,1 C 49 % 0 lf 1021,1 hPa 0,0 l/m 2 min 0 min 804 W/m 20,9 km/h (4 Bft)
09.07.2015 16:18 21,4 C 22,2 C 49 % 0 lf 1021,1 hPa 0,0 l/m 2 min 0 min 833 W/m 25,1 km/h (4 Bft)
09.07.2015 16:20 21,5 C 21,1 C 51 % 0 lf 1021,1 hPa 0,0 l/m 2 min 0 min 610 W/m 31,4 km/h (5 Bft)
09.07.2015 16:22 21,4 C 20,0 C 48 % 0 lf 1021,2 hPa 0,0 l/m 0 min 0 min 175 W/m 27,2 km/h (4 Bft)
09.07.2015 16:24 21,3 C 18,9 C 48 % 0 lf 1021,2 hPa 0,0 l/m 0 min 0 min 154 W/m 23,0 km/h (4 Bft)
09.07.2015 16:26 21,2 C 18,3 C 47 % 0 lf 1021,4 hPa 0,0 l/m 0 min 0 min 154 W/m 37,7 km/h (5 Bft)
09.07.2015 16:28 20,9 C 17,8 C 48 % 0 lf 1021,3 hPa 0,0 l/m 0 min 0 min 171 W/m 33,5 km/h (5 Bft)
09.07.2015 16:30 20,7 C 17,8 C 48 % 0 lf 1021,3 hPa 0,0 l/m 0 min 0 min 190 W/m 25,1 km/h (4 Bft)
09.07.2015 16:32 20,6 C 18,3 C 49 % 0 lf 1021,3 hPa 0,0 l/m 0 min 0 min 223 W/m 23,0 km/h (4 Bft)
09.07.2015 16:34 20,4 C 20,6 C 49 % 0 lf 1021,2 hPa 0,0 l/m 2 min 0 min 569 W/m 25,1 km/h (4 Bft)
09.07.2015 16:36 20,3 C 21,1 C 50 % 0 lf 1021,3 hPa 0,0 l/m 2 min 0 min 872 W/m 23,0 km/h (4 Bft)
09.07.2015 16:38 20,2 C 20,0 C 50 % 0 lf 1021,3 hPa 0,0 l/m 2 min 0 min 376 W/m 18,8 km/h (3 Bft)
09.07.2015 16:40 20,1 C 18,9 C 51 % 0 lf 1021,3 hPa 0,0 l/m 0 min 0 min 256 W/m 16,7 km/h (3 Bft)
09.07.2015 16:42 20,0 C 18,9 C 51 % 0 lf 1021,3 hPa 0,0 l/m 0 min 0 min 258 W/m 31,4 km/h (5 Bft)
09.07.2015 16:44 19,9 C 18,3 C 51 % 0 lf 1021,4 hPa 0,0 l/m 0 min 0 min 266 W/m 29,3 km/h (5 Bft)
09.07.2015 16:46 19,7 C 18,3 C 51 % 0 lf 1021,5 hPa 0,0 l/m 2 min 0 min 354 W/m 31,4 km/h (5 Bft)
09.07.2015 16:48 19,6 C 18,9 C 52 % 0 lf 1021,4 hPa 0,0 l/m 2 min 0 min 461 W/m 16,7 km/h (3 Bft)
09.07.2015 16:50 19,6 C 19,4 C 54 % 0 lf 1021,4 hPa 0,0 l/m 2 min 0 min 768 W/m 18,8 km/h (3 Bft)
09.07.2015 16:52 19,7 C 19,4 C 55 % 0 lf 1021,3 hPa 0,0 l/m 2 min 0 min 800 W/m 23,0 km/h (4 Bft)
09.07.2015 16:54 19,7 C 19,4 C 56 % 0 lf 1021,4 hPa 0,0 l/m 2 min 0 min 754 W/m 27,2 km/h (4 Bft)
09.07.2015 16:56 19,7 C 18,3 C 55 % 0 lf 1021,4 hPa 0,0 l/m 2 min 0 min 490 W/m 31,4 km/h (5 Bft)
09.07.2015 16:58 19,7 C 18,3 C 55 % 0 lf 1021,4 hPa 0,0 l/m 0 min 0 min 194 W/m 27,2 km/h (4 Bft)
09.07.2015 17:00 19,6 C 18,3 C 54 % 0 lf 1021,5 hPa 0,0 l/m 0 min 0 min 207 W/m 27,2 km/h (4 Bft)
09.07.2015 17:02 19,5 C 18,3 C 55 % 0 lf 1021,6 hPa 0,0 l/m 0 min 0 min 245 W/m 27,2 km/h (4 Bft)
09.07.2015 17:04 19,4 C 18,3 C 53 % 0 lf 1021,5 hPa 0,0 l/m 0 min 0 min 260 W/m 20,9 km/h (4 Bft)
09.07.2015 17:06 19,4 C 18,9 C 55 % 0 lf 1021,4 hPa 0,0 l/m 0 min 0 min 260 W/m 23,0 km/h (4 Bft)
09.07.2015 17:08 19,5 C 19,4 C 55 % 0 lf 1021,5 hPa 0,0 l/m 2 min 0 min 761 W/m 20,9 km/h (4 Bft)
09.07.2015 17:10 19,6 C 19,4 C 55 % 0 lf 1021,5 hPa 0,0 l/m 2 min 0 min 839 W/m 33,5 km/h (5 Bft)
09.07.2015 17:12 19,6 C 19,4 C 53 % 0 lf 1021,6 hPa 0,0 l/m 2 min 0 min 840 W/m 31,4 km/h (5 Bft)
09.07.2015 17:14 19,7 C 19,4 C 52 % 0 lf 1021,6 hPa 0,0 l/m 2 min 0 min 788 W/m 23,0 km/h (4 Bft)
09.07.2015 17:16 19,7 C 18,9 C 51 % 0 lf 1021,6 hPa 0,0 l/m 2 min 0 min 719 W/m 23,0 km/h (4 Bft)
09.07.2015 17:18 19,8 C 18,9 C 50 % 0 lf 1021,8 hPa 0,0 l/m 2 min 0 min 707 W/m 25,1 km/h (4 Bft)
09.07.2015 17:20 19,8 C 18,3 C 52 % 0 lf 1021,8 hPa 0,0 l/m 2 min 0 min 703 W/m 27,2 km/h (4 Bft)
09.07.2015 17:22 19,8 C 18,3 C 52 % 0 lf 1021,8 hPa 0,0 l/m 2 min 0 min 612 W/m 37,7 km/h (5 Bft)
09.07.2015 17:24 19,7 C 17,8 C 52 % 0 lf 1021,8 hPa 0,0 l/m 0 min 0 min 157 W/m 27,2 km/h (4 Bft)
09.07.2015 17:26 19,7 C 17,8 C 51 % 0 lf 1021,9 hPa 0,0 l/m 0 min 0 min 154 W/m 29,3 km/h (5 Bft)
09.07.2015 17:28 19,6 C 17,8 C 51 % 0 lf 1021,9 hPa 0,0 l/m 2 min 0 min 460 W/m 31,4 km/h (5 Bft)
09.07.2015 17:30 19,5 C 17,8 C 51 % 0 lf 1022,0 hPa 0,0 l/m 2 min 0 min 641 W/m 35,6 km/h (5 Bft)
09.07.2015 17:32 19,5 C 17,8 C 52 % 0 lf 1021,8 hPa 0,0 l/m 2 min 0 min 618 W/m 16,7 km/h (3 Bft)
09.07.2015 17:34 19,5 C 17,8 C 53 % 0 lf 1021,9 hPa 0,0 l/m 2 min 0 min 604 W/m 27,2 km/h (4 Bft)
09.07.2015 17:36 19,5 C 17,8 C 53 % 0 lf 1021,8 hPa 0,0 l/m 2 min 0 min 597 W/m 25,1 km/h (4 Bft)
09.07.2015 17:38 19,4 C 17,8 C 53 % 0 lf 1021,8 hPa 0,0 l/m 2 min 0 min 591 W/m 35,6 km/h (5 Bft)
09.07.2015 17:40 19,4 C 17,2 C 53 % 0 lf 1021,9 hPa 0,0 l/m 2 min 0 min 591 W/m 31,4 km/h (5 Bft)
09.07.2015 17:42 19,3 C 17,8 C 55 % 0 lf 1022,0 hPa 0,0 l/m 2 min 0 min 589 W/m 23,0 km/h (4 Bft)
09.07.2015 17:44 19,3 C 17,8 C 55 % 0 lf 1022,0 hPa 0,0 l/m 2 min 0 min 593 W/m 29,3 km/h (5 Bft)
09.07.2015 17:46 19,3 C 17,8 C 56 % 0 lf 1021,9 hPa 0,0 l/m 2 min 0 min 592 W/m 20,9 km/h (4 Bft)
09.07.2015 17:48 19,3 C 17,8 C 56 % 0 lf 1021,9 hPa 0,0 l/m 2 min 0 min 583 W/m 27,2 km/h (4 Bft)
09.07.2015 17:50 19,3 C 17,8 C 56 % 0 lf 1021,9 hPa 0,0 l/m 2 min 0 min 565 W/m 27,2 km/h (4 Bft)
09.07.2015 17:52 19,2 C 17,2 C 56 % 0 lf 1021,8 hPa 0,0 l/m 2 min 0 min 547 W/m 25,1 km/h (4 Bft)
09.07.2015 17:54 19,2 C 17,2 C 55 % 0 lf 1021,8 hPa 0,0 l/m 2 min 0 min 535 W/m 35,6 km/h (5 Bft)
09.07.2015 17:56 19,1 C 17,2 C 56 % 0 lf 1021,8 hPa 0,0 l/m 2 min 0 min 533 W/m 18,8 km/h (3 Bft)
09.07.2015 17:58 19,1 C 17,2 C 57 % 0 lf 1021,8 hPa 0,0 l/m 2 min 0 min 526 W/m 27,2 km/h (4 Bft)
09.07.2015 18:00 19,1 C 17,2 C 56 % 0 lf 1021,9 hPa 0,0 l/m 2 min 0 min 516 W/m 25,1 km/h (4 Bft)
09.07.2015 18:02 19,0 C 17,2 C 55 % 0 lf 1021,8 hPa 0,0 l/m 2 min 0 min 505 W/m 25,1 km/h (4 Bft)
09.07.2015 18:05 19,0 C 17,2 C 54 % 0 lf 1021,8 hPa 0,0 l/m 2 min 0 min 490 W/m 23,0 km/h (4 Bft)
09.07.2015 18:06 18,9 C 17,2 C 54 % 0 lf 1021,8 hPa 0,0 l/m 1 min 0 min 495 W/m 31,4 km/h (5 Bft)
09.07.2015 18:08 18,9 C 17,2 C 54 % 0 lf 1022,0 hPa 0,0 l/m 2 min 0 min 489 W/m 20,9 km/h (4 Bft)
09.07.2015 18:10 18,9 C 17,2 C 55 % 0 lf 1021,9 hPa 0,0 l/m 2 min 0 min 486 W/m 27,2 km/h (4 Bft)
09.07.2015 18:12 18,9 C 17,2 C 54 % 0 lf 1022,0 hPa 0,0 l/m 2 min 0 min 485 W/m 23,0 km/h (4 Bft)
09.07.2015 18:14 18,8 C 17,2 C 54 % 0 lf 1022,0 hPa 0,0 l/m 2 min 0 min 485 W/m 29,3 km/h (5 Bft)
09.07.2015 18:16 18,8 C 16,7 C 54 % 0 lf 1022,0 hPa 0,0 l/m 2 min 0 min 479 W/m 27,2 km/h (4 Bft)
09.07.2015 18:18 18,8 C 17,2 C 55 % 0 lf 1021,9 hPa 0,0 l/m 2 min 0 min 473 W/m 27,2 km/h (4 Bft)
09.07.2015 18:20 18,8 C 17,2 C 55 % 0 lf 1022,0 hPa 0,0 l/m 2 min 0 min 460 W/m 27,2 km/h (4 Bft)
09.07.2015 18:22 18,8 C 17,2 C 56 % 0 lf 1021,9 hPa 0,0 l/m 2 min 0 min 472 W/m 23,0 km/h (4 Bft)
09.07.2015 18:24 18,8 C 17,2 C 56 % 0 lf 1022,1 hPa 0,0 l/m 2 min 0 min 469 W/m 23,0 km/h (4 Bft)
09.07.2015 18:26 18,7 C 17,2 C 57 % 0 lf 1021,9 hPa 0,0 l/m 2 min 0 min 463 W/m 18,8 km/h (3 Bft)
09.07.2015 18:28 18,7 C 17,2 C 58 % 0 lf 1022,0 hPa 0,0 l/m 2 min 0 min 453 W/m 25,1 km/h (4 Bft)
09.07.2015 18:30 18,7 C 16,7 C 57 % 0 lf 1022,0 hPa 0,0 l/m 2 min 0 min 446 W/m 29,3 km/h (5 Bft)
09.07.2015 18:32 18,7 C 17,2 C 57 % 0 lf 1021,9 hPa 0,0 l/m 2 min 0 min 445 W/m 20,9 km/h (4 Bft)
09.07.2015 18:34 18,6 C 17,2 C 58 % 0 lf 1022,1 hPa 0,0 l/m 2 min 0 min 442 W/m 25,1 km/h (4 Bft)
09.07.2015 18:36 18,6 C 16,7 C 58 % 0 lf 1022,1 hPa 0,0 l/m 2 min 0 min 432 W/m 18,8 km/h (3 Bft)
09.07.2015 18:38 18,6 C 16,7 C 58 % 0 lf 1022,2 hPa 0,0 l/m 0 min 0 min 85 W/m 27,2 km/h (4 Bft)
09.07.2015 18:40 18,4 C 16,7 C 57 % 0 lf 1022,3 hPa 0,0 l/m 0 min 0 min 89 W/m 29,3 km/h (5 Bft)
09.07.2015 18:42 18,3 C 16,7 C 58 % 0 lf 1022,4 hPa 0,0 l/m 2 min 0 min 366 W/m 20,9 km/h (4 Bft)
09.07.2015 18:44 18,3 C 16,7 C 58 % 0 lf 1022,4 hPa 0,0 l/m 2 min 0 min 405 W/m 16,7 km/h (3 Bft)
09.07.2015 18:46 18,2 C 16,7 C 59 % 0 lf 1022,4 hPa 0,0 l/m 2 min 0 min 407 W/m 25,1 km/h (4 Bft)
09.07.2015 18:48 18,2 C 16,7 C 59 % 0 lf 1022,2 hPa 0,0 l/m 2 min 0 min 401 W/m 31,4 km/h (5 Bft)
09.07.2015 18:50 18,2 C 16,7 C 59 % 0 lf 1022,2 hPa 0,0 l/m 2 min 0 min 388 W/m 20,9 km/h (4 Bft)
09.07.2015 18:52 18,2 C 16,7 C 59 % 0 lf 1022,3 hPa 0,0 l/m 2 min 0 min 379 W/m 25,1 km/h (4 Bft)
09.07.2015 18:54 18,1 C 16,1 C 59 % 0 lf 1022,4 hPa 0,0 l/m 0 min 0 min 133 W/m 20,9 km/h (4 Bft)
09.07.2015 18:56 18,1 C 16,1 C 59 % 0 lf 1022,4 hPa 0,0 l/m 2 min 0 min 263 W/m 20,9 km/h (4 Bft)
09.07.2015 18:58 18,1 C 16,1 C 59 % 0 lf 1022,4 hPa 0,0 l/m 2 min 0 min 361 W/m 25,1 km/h (4 Bft)
09.07.2015 19:00 18,0 C 16,1 C 59 % 0 lf 1022,4 hPa 0,0 l/m 2 min 0 min 358 W/m 29,3 km/h (5 Bft)
09.07.2015 19:02 17,9 C 16,1 C 59 % 0 lf 1022,4 hPa 0,0 l/m 2 min 0 min 350 W/m 25,1 km/h (4 Bft)
09.07.2015 19:04 17,9 C 16,1 C 58 % 0 lf 1022,4 hPa 0,0 l/m 2 min 0 min 345 W/m 31,4 km/h (5 Bft)
09.07.2015 19:06 17,8 C 16,1 C 58 % 0 lf 1022,5 hPa 0,0 l/m 2 min 0 min 335 W/m 20,9 km/h (4 Bft)
09.07.2015 19:08 17,8 C 16,1 C 58 % 0 lf 1022,4 hPa 0,0 l/m 2 min 0 min 329 W/m 27,2 km/h (4 Bft)
09.07.2015 19:10 17,8 C 16,1 C 58 % 0 lf 1022,5 hPa 0,0 l/m 2 min 0 min 325 W/m 20,9 km/h (4 Bft)
09.07.2015 19:12 17,8 C 16,1 C 58 % 0 lf 1022,4 hPa 0,0 l/m 2 min 0 min 318 W/m 20,9 km/h (4 Bft)
09.07.2015 19:14 17,8 C 16,1 C 58 % 0 lf 1022,4 hPa 0,0 l/m 2 min 0 min 311 W/m 20,9 km/h (4 Bft)
09.07.2015 19:16 17,8 C 16,1 C 59 % 0 lf 1022,4 hPa 0,0 l/m 2 min 0 min 305 W/m 12,6 km/h (3 Bft)
09.07.2015 19:18 17,7 C 16,1 C 59 % 0 lf 1022,3 hPa 0,0 l/m 2 min 0 min 283 W/m 23,0 km/h (4 Bft)
09.07.2015 19:20 17,7 C 16,1 C 59 % 0 lf 1022,3 hPa 0,0 l/m 2 min 0 min 289 W/m 25,1 km/h (4 Bft)
09.07.2015 19:22 17,7 C 16,1 C 60 % 0 lf 1022,4 hPa 0,0 l/m 2 min 0 min 287 W/m 25,1 km/h (4 Bft)
09.07.2015 19:24 17,7 C 16,1 C 59 % 0 lf 1022,4 hPa 0,0 l/m 2 min 0 min 284 W/m 23,0 km/h (4 Bft)
09.07.2015 19:26 17,7 C 16,1 C 59 % 0 lf 1022,4 hPa 0,0 l/m 2 min 0 min 278 W/m 16,7 km/h (3 Bft)
09.07.2015 19:28 17,6 C 16,1 C 60 % 0 lf 1022,5 hPa 0,0 l/m 2 min 0 min 277 W/m 20,9 km/h (4 Bft)
09.07.2015 19:30 17,6 C 16,1 C 59 % 0 lf 1022,5 hPa 0,0 l/m 2 min 0 min 189 W/m 25,1 km/h (4 Bft)
09.07.2015 19:32 17,6 C 16,1 C 59 % 0 lf 1022,6 hPa 0,0 l/m 2 min 0 min 233 W/m 16,7 km/h (3 Bft)
09.07.2015 19:34 17,6 C 15,6 C 59 % 0 lf 1022,7 hPa 0,0 l/m 0 min 0 min 105 W/m 20,9 km/h (4 Bft)
09.07.2015 19:36 17,5 C 15,6 C 59 % 0 lf 1022,6 hPa 0,0 l/m 0 min 0 min 99 W/m 18,8 km/h (3 Bft)
09.07.2015 19:38 17,4 C 15,6 C 59 % 0 lf 1022,6 hPa 0,0 l/m 2 min 0 min 244 W/m 20,9 km/h (4 Bft)
09.07.2015 19:40 17,4 C 15,6 C 59 % 0 lf 1022,7 hPa 0,0 l/m 2 min 0 min 244 W/m 16,7 km/h (3 Bft)
09.07.2015 19:42 17,4 C 15,6 C 60 % 0 lf 1022,7 hPa 0,0 l/m 2 min 0 min 237 W/m 10,5 km/h (2 Bft)
09.07.2015 19:44 17,4 C 15,6 C 60 % 0 lf 1022,8 hPa 0,0 l/m 0 min 0 min 118 W/m 23,0 km/h (4 Bft)
09.07.2015 19:46 17,4 C 15,6 C 60 % 0 lf 1022,9 hPa 0,0 l/m 2 min 0 min 166 W/m 20,9 km/h (4 Bft)
09.07.2015 19:48 17,4 C 15,6 C 60 % 0 lf 1022,9 hPa 0,0 l/m 2 min 0 min 205 W/m 25,1 km/h (4 Bft)
09.07.2015 19:50 17,3 C 15,6 C 60 % 0 lf 1022,9 hPa 0,0 l/m 2 min 0 min 208 W/m 14,6 km/h (3 Bft)
09.07.2015 19:52 17,3 C 15,6 C 61 % 0 lf 1022,9 hPa 0,0 l/m 0 min 0 min 122 W/m 16,7 km/h (3 Bft)
09.07.2015 19:54 17,3 C 15,6 C 60 % 0 lf 1022,9 hPa 0,0 l/m 2 min 0 min 152 W/m 23,0 km/h (4 Bft)
09.07.2015 19:56 17,2 C 15,6 C 61 % 0 lf 1022,9 hPa 0,0 l/m 2 min 0 min 191 W/m 16,7 km/h (3 Bft)
09.07.2015 19:58 17,2 C 15,6 C 60 % 0 lf 1023,0 hPa 0,0 l/m 2 min 0 min 185 W/m 33,5 km/h (5 Bft)
09.07.2015 20:00 17,2 C 15,6 C 60 % 0 lf 1022,9 hPa 0,0 l/m 2 min 0 min 179 W/m 29,3 km/h (5 Bft)
09.07.2015 20:02 17,1 C 15,6 C 60 % 0 lf 1023,0 hPa 0,0 l/m 2 min 0 min 172 W/m 18,8 km/h (3 Bft)
09.07.2015 20:04 17,1 C 15,6 C 60 % 0 lf 1023,0 hPa 0,0 l/m 2 min 0 min 165 W/m 16,7 km/h (3 Bft)
09.07.2015 20:06 17,1 C 15,6 C 61 % 0 lf 1023,0 hPa 0,0 l/m 2 min 0 min 121 W/m 16,7 km/h (3 Bft)
09.07.2015 20:08 17,1 C 15,6 C 61 % 0 lf 1023,0 hPa 0,0 l/m 0 min 0 min 97 W/m 14,6 km/h (3 Bft)
09.07.2015 20:10 17,1 C 15,6 C 61 % 0 lf 1023,0 hPa 0,0 l/m 0 min 0 min 97 W/m 14,6 km/h (3 Bft)
09.07.2015 20:12 17,0 C 15,0 C 61 % 0 lf 1023,0 hPa 0,0 l/m 2 min 0 min 143 W/m 12,6 km/h (3 Bft)
09.07.2015 20:14 17,0 C 15,0 C 61 % 0 lf 1023,0 hPa 0,0 l/m 2 min 0 min 138 W/m 10,5 km/h (2 Bft)
09.07.2015 20:16 17,0 C 15,0 C 61 % 0 lf 1022,9 hPa 0,0 l/m 2 min 0 min 132 W/m 14,6 km/h (3 Bft)
09.07.2015 20:18 16,9 C 15,0 C 61 % 0 lf 1023,0 hPa 0,0 l/m 2 min 0 min 102 W/m 10,5 km/h (2 Bft)
09.07.2015 20:20 16,9 C 15,0 C 60 % 0 lf 1023,0 hPa 0,0 l/m 0 min 0 min 53 W/m 14,6 km/h (3 Bft)
09.07.2015 20:22 16,9 C 15,0 C 61 % 0 lf 1022,9 hPa 0,0 l/m 2 min 0 min 103 W/m 10,5 km/h (2 Bft)
09.07.2015 20:24 16,9 C 15,0 C 61 % 0 lf 1023,0 hPa 0,0 l/m 2 min 0 min 110 W/m 14,6 km/h (3 Bft)
09.07.2015 20:26 16,9 C 15,0 C 61 % 0 lf 1023,0 hPa 0,0 l/m 2 min 0 min 107 W/m 14,6 km/h (3 Bft)
09.07.2015 20:28 16,8 C 15,0 C 61 % 0 lf 1023,0 hPa 0,0 l/m 2 min 0 min 101 W/m 12,6 km/h (3 Bft)
09.07.2015 20:30 16,8 C 15,0 C 61 % 0 lf 1023,0 hPa 0,0 l/m 2 min 0 min 95 W/m 10,5 km/h (2 Bft)
09.07.2015 20:32 16,8 C 15,0 C 60 % 0 lf 1023,0 hPa 0,0 l/m 0 min 0 min 74 W/m 14,6 km/h (3 Bft)
09.07.2015 20:34 16,7 C 15,0 C 61 % 0 lf 1023,1 hPa 0,0 l/m 0 min 0 min 73 W/m 10,5 km/h (2 Bft)
09.07.2015 20:36 16,7 C 15,0 C 61 % 0 lf 1023,1 hPa 0,0 l/m 2 min 0 min 81 W/m 10,5 km/h (2 Bft)
09.07.2015 20:38 16,7 C 15,0 C 61 % 0 lf 1023,2 hPa 0,0 l/m 2 min 0 min 77 W/m 10,5 km/h (2 Bft)
09.07.2015 20:40 16,7 C 15,0 C 61 % 0 lf 1023,2 hPa 0,0 l/m 2 min 0 min 73 W/m 23,0 km/h (4 Bft)
09.07.2015 20:42 16,6 C 14,4 C 61 % 0 lf 1023,1 hPa 0,0 l/m 2 min 0 min 70 W/m 12,6 km/h (3 Bft)
09.07.2015 20:44 16,6 C 14,4 C 61 % 0 lf 1023,2 hPa 0,0 l/m 2 min 0 min 67 W/m 10,5 km/h (2 Bft)
09.07.2015 20:46 16,6 C 14,4 C 61 % 0 lf 1023,2 hPa 0,0 l/m 2 min 0 min 64 W/m 14,6 km/h (3 Bft)
09.07.2015 20:48 16,5 C 14,4 C 61 % 0 lf 1023,2 hPa 0,0 l/m 0 min 0 min 60 W/m 14,6 km/h (3 Bft)
09.07.2015 20:50 16,5 C 14,4 C 61 % 0 lf 1023,2 hPa 0,0 l/m 0 min 0 min 56 W/m 18,8 km/h (3 Bft)
09.07.2015 20:52 16,4 C 14,4 C 61 % 0 lf 1023,2 hPa 0,0 l/m 0 min 0 min 53 W/m 14,6 km/h (3 Bft)
09.07.2015 20:54 16,4 C 14,4 C 61 % 0 lf 1023,2 hPa 0,0 l/m 0 min 0 min 49 W/m 18,8 km/h (3 Bft)
09.07.2015 20:56 16,4 C 14,4 C 61 % 0 lf 1023,2 hPa 0,0 l/m 0 min 0 min 47 W/m 16,7 km/h (3 Bft)
09.07.2015 20:58 16,3 C 14,4 C 61 % 0 lf 1023,2 hPa 0,0 l/m 0 min 0 min 44 W/m 16,7 km/h (3 Bft)
09.07.2015 21:00 16,3 C 14,4 C 61 % 0 lf 1023,2 hPa 0,0 l/m 0 min 0 min 41 W/m 18,8 km/h (3 Bft)
09.07.2015 21:02 16,2 C 14,4 C 61 % 0 lf 1023,2 hPa 0,0 l/m 0 min 0 min 38 W/m 18,8 km/h (3 Bft)
09.07.2015 21:04 16,2 C 14,4 C 61 % 0 lf 1023,3 hPa 0,0 l/m 0 min 0 min 36 W/m 18,8 km/h (3 Bft)
09.07.2015 21:06 16,2 C 14,4 C 61 % 0 lf 1023,3 hPa 0,0 l/m 0 min 0 min 34 W/m 12,6 km/h (3 Bft)
09.07.2015 21:08 16,1 C 13,9 C 61 % 0 lf 1023,2 hPa 0,0 l/m 0 min 0 min 32 W/m 14,6 km/h (3 Bft)
09.07.2015 21:10 16,1 C 13,9 C 62 % 0 lf 1023,3 hPa 0,0 l/m 0 min 0 min 30 W/m 14,6 km/h (3 Bft)
09.07.2015 21:12 16,1 C 13,9 C 62 % 0 lf 1023,3 hPa 0,0 l/m 0 min 0 min 28 W/m 16,7 km/h (3 Bft)
09.07.2015 21:14 16,0 C 13,9 C 62 % 0 lf 1023,3 hPa 0,0 l/m 0 min 0 min 26 W/m 8,4 km/h (2 Bft)
09.07.2015 21:16 15,9 C 13,9 C 63 % 0 lf 1023,3 hPa 0,0 l/m 0 min 0 min 25 W/m 8,4 km/h (2 Bft)
09.07.2015 21:18 15,9 C 13,9 C 63 % 0 lf 1023,4 hPa 0,0 l/m 0 min 0 min 25 W/m 10,5 km/h (2 Bft)
09.07.2015 21:20 15,9 C 13,9 C 63 % 0 lf 1023,4 hPa 0,0 l/m 0 min 0 min 23 W/m 10,5 km/h (2 Bft)
09.07.2015 21:22 15,8 C 13,9 C 63 % 0 lf 1023,4 hPa 0,0 l/m 0 min 0 min 21 W/m 10,5 km/h (2 Bft)
09.07.2015 21:24 15,8 C 13,3 C 63 % 0 lf 1023,5 hPa 0,0 l/m 2 min 0 min 21 W/m 8,4 km/h (2 Bft)
09.07.2015 21:26 15,8 C 13,3 C 63 % 0 lf 1023,5 hPa 0,0 l/m 2 min 0 min 19 W/m 16,7 km/h (3 Bft)
09.07.2015 21:28 15,7 C 13,3 C 63 % 0 lf 1023,5 hPa 0,0 l/m 2 min 0 min 19 W/m 14,6 km/h (3 Bft)
09.07.2015 21:30 15,7 C 13,3 C 64 % 0 lf 1023,5 hPa 0,0 l/m 0 min 0 min 18 W/m 14,6 km/h (3 Bft)
09.07.2015 21:32 15,6 C 13,3 C 64 % 0 lf 1023,5 hPa 0,0 l/m 0 min 0 min 17 W/m 16,7 km/h (3 Bft)
09.07.2015 21:34 15,6 C 13,3 C 64 % 0 lf 1023,5 hPa 0,0 l/m 0 min 0 min 15 W/m 12,6 km/h (3 Bft)
09.07.2015 21:36 15,5 C 13,3 C 64 % 0 lf 1023,5 hPa 0,0 l/m 0 min 0 min 14 W/m 12,6 km/h (3 Bft)
09.07.2015 21:38 15,4 C 13,3 C 64 % 0 lf 1023,5 hPa 0,0 l/m 0 min 0 min 13 W/m 12,6 km/h (3 Bft)
09.07.2015 21:40 15,4 C 13,3 C 64 % 0 lf 1023,6 hPa 0,0 l/m 0 min 0 min 12 W/m 8,4 km/h (2 Bft)
09.07.2015 21:42 15,4 C 12,8 C 64 % 0 lf 1023,6 hPa 0,0 l/m 0 min 0 min 11 W/m 12,6 km/h (3 Bft)
09.07.2015 21:44 15,3 C 12,8 C 65 % 0 lf 1023,6 hPa 0,0 l/m 0 min 0 min 11 W/m 12,6 km/h (3 Bft)
09.07.2015 21:46 15,3 C 12,8 C 65 % 0 lf 1023,7 hPa 0,0 l/m 0 min 0 min 10 W/m 8,4 km/h (2 Bft)
09.07.2015 21:48 15,3 C 12,8 C 65 % 0 lf 1023,7 hPa 0,0 l/m 0 min 0 min 9 W/m 12,6 km/h (3 Bft)
09.07.2015 21:50 15,2 C 12,8 C 65 % 0 lf 1023,7 hPa 0,0 l/m 0 min 0 min 8 W/m 12,6 km/h (3 Bft)
09.07.2015 21:52 15,2 C 12,8 C 65 % 0 lf 1023,7 hPa 0,0 l/m 0 min 0 min 7 W/m 6,3 km/h (2 Bft)
09.07.2015 21:54 15,1 C 12,8 C 65 % 0 lf 1023,7 hPa 0,0 l/m 0 min 0 min 7 W/m 8,4 km/h (2 Bft)
09.07.2015 21:56 15,1 C 12,8 C 65 % 0 lf 1023,7 hPa 0,0 l/m 0 min 0 min 5 W/m 6,3 km/h (2 Bft)
09.07.2015 21:58 15,0 C 12,2 C 65 % 0 lf 1023,7 hPa 0,0 l/m 0 min 0 min 5 W/m 8,4 km/h (2 Bft)
09.07.2015 22:00 14,9 C 12,2 C 65 % 0 lf 1023,7 hPa 0,0 l/m 0 min 0 min 5 W/m 6,3 km/h (2 Bft)
09.07.2015 22:02 14,9 C 12,2 C 66 % 0 lf 1023,7 hPa 0,0 l/m 0 min 0 min 5 W/m 4,2 km/h (1 Bft)
09.07.2015 22:04 14,8 C 11,7 C 66 % 0 lf 1023,7 hPa 0,0 l/m 0 min 0 min 2 W/m 4,2 km/h (1 Bft)
09.07.2015 22:06 14,8 C 11,7 C 66 % 0 lf 1023,8 hPa 0,0 l/m 0 min 0 min 0 W/m 6,3 km/h (2 Bft)
09.07.2015 22:08 14,8 C 11,7 C 66 % 0 lf 1023,8 hPa 0,0 l/m 0 min 0 min 0 W/m 4,2 km/h (1 Bft)
09.07.2015 22:10 14,7 C 11,7 C 66 % 0 lf 1023,8 hPa 0,0 l/m 0 min 0 min 0 W/m 4,2 km/h (1 Bft)
09.07.2015 22:12 14,7 C 11,7 C 67 % 0 lf 1023,8 hPa 0,0 l/m 0 min 0 min 0 W/m 4,2 km/h (1 Bft)
09.07.2015 22:14 14,6 C 11,1 C 67 % 0 lf 1023,8 hPa 0,0 l/m 0 min 0 min 0 W/m 4,2 km/h (1 Bft)
09.07.2015 22:16 14,6 C 11,1 C 67 % 0 lf 1023,9 hPa 0,0 l/m 0 min 0 min 0 W/m 6,3 km/h (2 Bft)
09.07.2015 22:18 14,5 C 11,1 C 67 % 0 lf 1023,9 hPa 0,0 l/m 0 min 0 min 0 W/m 6,3 km/h (2 Bft)
09.07.2015 22:20 14,4 C 11,1 C 67 % 0 lf 1023,9 hPa 0,0 l/m 0 min 0 min 0 W/m 2,1 km/h (1 Bft)
09.07.2015 22:22 14,4 C 11,1 C 67 % 0 lf 1023,9 hPa 0,0 l/m 0 min 0 min 0 W/m 2,1 km/h (1 Bft)
09.07.2015 22:24 14,3 C 10,6 C 68 % 0 lf 1023,9 hPa 0,0 l/m 0 min 0 min 0 W/m 2,1 km/h (1 Bft)
09.07.2015 22:26 14,2 C 10,6 C 68 % 0 lf 1023,9 hPa 0,0 l/m 0 min 0 min 0 W/m 6,3 km/h (2 Bft)
09.07.2015 22:28 14,2 C 10,6 C 68 % 0 lf 1023,9 hPa 0,0 l/m 0 min 0 min 0 W/m 2,1 km/h (1 Bft)
09.07.2015 22:30 14,2 C 10,6 C 68 % 0 lf 1023,9 hPa 0,0 l/m 0 min 0 min 0 W/m 4,2 km/h (1 Bft)
09.07.2015 22:32 14,2 C 10,6 C 68 % 0 lf 1023,9 hPa 0,0 l/m 0 min 0 min 0 W/m 4,2 km/h (1 Bft)
09.07.2015 22:34 14,1 C 10,6 C 69 % 0 lf 1023,9 hPa 0,0 l/m 0 min 0 min 0 W/m 4,2 km/h (1 Bft)
09.07.2015 22:36 14,0 C 10,6 C 69 % 0 lf 1023,9 hPa 0,0 l/m 0 min 0 min 0 W/m 2,1 km/h (1 Bft)
09.07.2015 22:38 13,9 C 10,6 C 69 % 0 lf 1023,9 hPa 0,0 l/m 0 min 0 min 0 W/m 2,1 km/h (1 Bft)
09.07.2015 22:40 13,8 C 10,6 C 69 % 0 lf 1023,9 hPa 0,0 l/m 0 min 0 min 0 W/m 4,2 km/h (1 Bft)
09.07.2015 22:42 13,8 C 10,6 C 69 % 0 lf 1023,9 hPa 0,0 l/m 0 min 0 min 0 W/m 4,2 km/h (1 Bft)
09.07.2015 22:44 13,7 C 10,0 C 70 % 0 lf 1024,0 hPa 0,0 l/m 0 min 0 min 0 W/m 6,3 km/h (2 Bft)
09.07.2015 22:46 13,7 C 10,0 C 70 % 0 lf 1024,0 hPa 0,0 l/m 0 min 0 min 0 W/m 6,3 km/h (2 Bft)
09.07.2015 22:48 13,6 C 10,0 C 70 % 0 lf 1024,0 hPa 0,0 l/m 0 min 0 min 0 W/m 6,3 km/h (2 Bft)
09.07.2015 22:50 13,5 C 10,0 C 70 % 0 lf 1024,1 hPa 0,0 l/m 0 min 0 min 0 W/m 6,3 km/h (2 Bft)
09.07.2015 22:52 13,4 C 10,0 C 70 % 0 lf 1024,1 hPa 0,0 l/m 0 min 0 min 0 W/m 4,2 km/h (1 Bft)
09.07.2015 22:54 13,4 C 10,0 C 71 % 0 lf 1024,1 hPa 0,0 l/m 0 min 0 min 0 W/m 6,3 km/h (2 Bft)
09.07.2015 22:56 13,3 C 10,0 C 71 % 0 lf 1024,0 hPa 0,0 l/m 0 min 0 min 0 W/m 4,2 km/h (1 Bft)
09.07.2015 22:58 13,3 C 10,0 C 71 % 0 lf 1024,0 hPa 0,0 l/m 0 min 0 min 0 W/m 4,2 km/h (1 Bft)
09.07.2015 23:00 13,2 C 10,0 C 71 % 0 lf 1023,9 hPa 0,0 l/m 0 min 0 min 0 W/m 6,3 km/h (2 Bft)
09.07.2015 23:02 13,2 C 10,0 C 71 % 0 lf 1024,0 hPa 0,0 l/m 0 min 0 min 0 W/m 6,3 km/h (2 Bft)
09.07.2015 23:04 13,1 C 10,0 C 72 % 0 lf 1024,1 hPa 0,0 l/m 0 min 0 min 0 W/m 4,2 km/h (1 Bft)
09.07.2015 23:06 13,0 C 10,0 C 72 % 0 lf 1024,1 hPa 0,0 l/m 0 min 0 min 0 W/m 4,2 km/h (1 Bft)
09.07.2015 23:08 12,9 C 10,0 C 72 % 0 lf 1024,1 hPa 0,0 l/m 0 min 0 min 0 W/m 4,2 km/h (1 Bft)
09.07.2015 23:10 12,9 C 10,0 C 72 % 0 lf 1024,1 hPa 0,0 l/m 0 min 0 min 0 W/m 2,1 km/h (1 Bft)
09.07.2015 23:12 12,8 C 10,0 C 72 % 0 lf 1024,1 hPa 0,0 l/m 0 min 0 min 0 W/m 4,2 km/h (1 Bft)
09.07.2015 23:14 12,8 C 10,0 C 72 % 0 lf 1024,1 hPa 0,0 l/m 0 min 0 min 0 W/m 4,2 km/h (1 Bft)
09.07.2015 23:16 12,8 C 10,0 C 72 % 0 lf 1024,2 hPa 0,0 l/m 0 min 0 min 0 W/m 4,2 km/h (1 Bft)
09.07.2015 23:18 12,7 C 9,4 C 73 % 0 lf 1024,2 hPa 0,0 l/m 0 min 0 min 0 W/m 4,2 km/h (1 Bft)
09.07.2015 23:20 12,7 C 9,4 C 73 % 0 lf 1024,2 hPa 0,0 l/m 0 min 0 min 0 W/m 4,2 km/h (1 Bft)
09.07.2015 23:22 12,6 C 9,4 C 73 % 0 lf 1024,2 hPa 0,0 l/m 0 min 0 min 0 W/m 2,1 km/h (1 Bft)
09.07.2015 23:24 12,5 C 9,4 C 73 % 0 lf 1024,2 hPa 0,0 l/m 0 min 0 min 0 W/m 4,2 km/h (1 Bft)
09.07.2015 23:26 12,4 C 9,4 C 73 % 0 lf 1024,3 hPa 0,0 l/m 0 min 0 min 0 W/m 2,1 km/h (1 Bft)
09.07.2015 23:28 12,4 C 9,4 C 73 % 0 lf 1024,3 hPa 0,0 l/m 0 min 0 min 0 W/m 2,1 km/h (1 Bft)
09.07.2015 23:30 12,4 C 9,4 C 74 % 0 lf 1024,3 hPa 0,0 l/m 0 min 0 min 0 W/m 4,2 km/h (1 Bft)
09.07.2015 23:32 12,3 C 9,4 C 74 % 0 lf 1024,3 hPa 0,0 l/m 0 min 0 min 0 W/m 4,2 km/h (1 Bft)
09.07.2015 23:34 12,3 C 9,4 C 74 % 0 lf 1024,3 hPa 0,0 l/m 0 min 0 min 0 W/m 4,2 km/h (1 Bft)
09.07.2015 23:36 12,2 C 9,4 C 74 % 0 lf 1024,4 hPa 0,0 l/m 0 min 0 min 0 W/m 2,1 km/h (1 Bft)
09.07.2015 23:38 12,2 C 9,4 C 74 % 0 lf 1024,4 hPa 0,0 l/m 0 min 0 min 0 W/m 4,2 km/h (1 Bft)
09.07.2015 23:40 12,1 C 9,4 C 74 % 0 lf 1024,4 hPa 0,0 l/m 0 min 0 min 0 W/m 4,2 km/h (1 Bft)
09.07.2015 23:42 12,1 C 9,4 C 75 % 0 lf 1024,4 hPa 0,0 l/m 0 min 0 min 0 W/m 4,2 km/h (1 Bft)
09.07.2015 23:44 12,1 C 9,4 C 75 % 0 lf 1024,4 hPa 0,0 l/m 0 min 0 min 0 W/m 2,1 km/h (1 Bft)
09.07.2015 23:46 12,0 C 9,4 C 75 % 0 lf 1024,4 hPa 0,0 l/m 0 min 0 min 0 W/m 4,2 km/h (1 Bft)
09.07.2015 23:48 11,9 C 9,4 C 75 % 0 lf 1024,4 hPa 0,0 l/m 0 min 0 min 0 W/m 2,1 km/h (1 Bft)
09.07.2015 23:50 11,9 C 9,4 C 75 % 0 lf 1024,5 hPa 0,0 l/m 0 min 0 min 0 W/m 2,1 km/h (1 Bft)
09.07.2015 23:52 11,9 C 9,4 C 75 % 0 lf 1024,5 hPa 0,0 l/m 0 min 0 min 0 W/m 2,1 km/h (1 Bft)
09.07.2015 23:54 11,8 C 9,4 C 75 % 0 lf 1024,4 hPa 0,0 l/m 0 min 0 min 0 W/m 2,1 km/h (1 Bft)
09.07.2015 23:56 11,8 C 9,4 C 75 % 0 lf 1024,4 hPa 0,0 l/m 0 min 0 min 0 W/m 4,2 km/h (1 Bft)
09.07.2015 23:58 11,8 C 9,4 C 75 % 0 lf 1024,4 hPa 0,0 l/m 0 min 0 min 0 W/m 4,2 km/h (1 Bft)
_ Min-Zeit 05:52 23:18 16:26 07:20 00:02 - - - - 22:20
Minimum _ 11,8 C 9,4 C 47 % 0 lf 1012,6 hPa - - - - 2,1 km/h (1 Bft)
_ Max-Zeit 16:20 12:20 06:14 00:14 23:50 00:16 05:46 00:08 14:12 02:20
Maximum _ 21,5 C 22,2 C 95 % 15 lf 1024,5 hPa 0,2 l/m 2 min 2 min 1114 W/m 43,9 km/h
NW (6 Bft)
Durchschnitt _ 15,7 C 14,5 C 76 % 5 lf 1019,2 hPa #1,2 l/m #8:08 h #1:33 h 352 W/m 17,7 km/h (3 Bft)
© 2015 W. Hausmann